N4ASP-13 Weather Reports


time (UTC)temp
C
wind
direction
speed
KPH
gust
KPH
rain 1hr
cm
rain 24hr
cm
rain mn
cm
humidity
%
barometer
mb
20260904232655 26 306 4.8 8.0 0.00 0.00 0.00 74 1017.7
20260904232552 26 306 6.4 8.0 0.00 0.00 0.00 73 1017.7
20260904232454 26 306 6.4 11.3 0.00 0.00 0.00 73 1017.7
20260904232351 26 309 6.4 11.3 0.00 0.00 0.00 73 1017.7
20260904232249 26 309 6.4 11.3 0.00 0.00 0.00 73 1017.7
20260904232148 26 309 6.4 11.3 0.00 0.00 0.00 73 1017.6
20260904232047 26 309 6.4 11.3 0.00 0.00 0.00 73 1017.6
20260904231946 26 310 6.4 11.3 0.00 0.00 0.00 72 1017.6
20260904231845 26 309 6.4 11.3 0.00 0.00 0.00 73 1017.6
20260904231743 26 309 6.4 11.3 0.00 0.00 0.00 73 1017.6
20260904231636 26 298 6.4 11.3 0.00 0.00 0.00 72 1017.7
20260904231533 26 325 4.8 11.3 0.00 0.00 0.00 72 1017.7
20260904231433 26 301 4.8 9.7 0.00 0.00 0.00 72 1017.6
20260904231334 26 277 4.8 9.7 0.00 0.00 0.00 72 1017.6
20260904231233 26 277 4.8 9.7 0.00 0.00 0.00 71 1017.5
20260904231128 26 277 4.8 9.7 0.00 0.00 0.00 71 1017.4
20260904231026 26 276 4.8 9.7 0.00 0.00 0.00 72 1017.4
20260904230926 26 274 4.8 6.4 0.00 0.00 0.00 72 1017.4
20260904230826 26 273 4.8 6.4 0.00 0.00 0.00 72 1017.5
20260904230726 26 295 4.8 6.4 0.00 0.00 0.00 73 1017.4
20260904230626 26 304 4.8 6.4 0.00 0.00 0.00 73 1017.4
20260904230525 26 306 4.8 6.4 0.00 0.00 0.00 73 1017.4
20260904230422 26 307 4.8 6.4 0.00 0.00 0.00 73 1017.3
20260904230323 26 308 4.8 6.4 0.00 0.00 0.00 73 1017.3
20260904230220 26 308 4.8 6.4 0.00 0.00 0.00 73 1017.4
20260904230114 26 308 4.8 6.4 0.00 0.00 0.00 74 1017.3
20260904230014 26 308 4.8 6.4 0.00 0.00 0.00 73 1017.3
20260904225913 26 309 3.2 6.4 0.00 0.00 0.00 73 1017.3
20260904225813 26 309 3.2 6.4 0.00 0.00 0.00 73 1017.3
20260904225710 26 310 3.2 6.4 0.00 0.00 0.00 73 1017.4
20260904225604 26 310 3.2 6.4 0.00 0.00 0.00 73 1017.3
20260904225503 26 310 3.2 6.4 0.00 0.00 0.00 74 1017.5
20260904225404 26 310 3.2 6.4 0.00 0.00 0.00 74 1017.5
20260904225306 26 309 3.2 6.4 0.00 0.00 0.00 75 1017.4
20260904225205 26 309 3.2 6.4 0.00 0.00 0.00 74 1017.4
20260904225058 26 309 3.2 6.4 0.00 0.00 0.00 74 1017.3
20260904224958 26 309 3.2 6.4 0.00 0.00 0.00 75 1017.1
20260904224859 26 309 3.2 6.4 0.00 0.00 0.00 76 1017.3
20260904224758 26 305 4.8 6.4 0.00 0.00 0.00 76 1017.3
20260904224658 26 305 3.2 6.4 0.00 0.00 0.00 76 1017.3
20260904224550 26 305 3.2 6.4 0.00 0.00 0.00 77 1017.3
20260904224451 26 304 3.2 6.4 0.00 0.00 0.00 76 1017.4
20260904224351 26 303 3.2 6.4 0.00 0.00 0.00 75 1017.3
20260904224251 26 304 3.2 6.4 0.00 0.00 0.00 74 1017.3
20260904224149 26 305 3.2 6.4 0.00 0.00 0.00 74 1017.3
20260904224046 26 252 4.8 11.3 0.00 0.00 0.00 74 1017.3
20260904223947 26 306 4.8 11.3 0.00 0.00 0.00 74 1017.3
20260904223846 25 306 4.8 12.9 0.00 0.00 0.00 74 1017.3
20260904223745 25 306 4.8 12.9 0.00 0.00 0.00 74 1017.3
20260904223643 25 292 6.4 12.9 0.00 0.00 0.00 74 1017.4
20260904223543 25 292 6.4 12.9 0.00 0.00 0.00 76 1017.3
20260904223440 25 292 6.4 12.9 0.00 0.00 0.00 76 1017.4
20260904223340 25 292 6.4 12.9 0.00 0.00 0.00 75 1017.4
20260904223240 25 296 6.4 12.9 0.00 0.00 0.00 76 1017.5
20260904223137 25 311 6.4 12.9 0.00 0.00 0.00 76 1017.6
20260904223027 25 309 6.4 12.9 0.00 0.00 0.00 76 1017.6
20260904222926 25 298 6.4 12.9 0.00 0.00 0.00 77 1017.5
20260904222827 25 299 6.4 12.9 0.00 0.00 0.00 78 1017.5
20260904222728 25 282 6.4 11.3 0.00 0.00 0.00 79 1017.5
20260904222627 25 282 4.8 11.3 0.00 0.00 0.00 79 1017.4
20260904222522 25 276 4.8 11.3 0.00 0.00 0.00 78 1017.5
20260904222421 25 247 6.4 11.3 0.00 0.00 0.00 78 1017.6
20260904222320 25 252 4.8 11.3 0.00 0.00 0.00 78 1017.6
20260904222221 26 259 4.8 11.3 0.00 0.00 0.00 77 1017.5
20260904222121 26 302 4.8 9.7 0.00 0.00 0.00 78 1017.6
20260904222015 26 318 4.8 9.7 0.00 0.00 0.00 77 1017.7
20260904221914 26 315 4.8 14.5 0.00 0.00 0.00 76 1017.6
20260904221815 26 317 4.8 14.5 0.00 0.00 0.00 76 1017.6
20260904221713 26 317 4.8 19.3 0.00 0.00 0.00 76 1017.6
20260904221614 26 311 8.0 19.3 0.00 0.00 0.00 76 1017.8
20260904221506 26 310 8.0 20.9 0.00 0.00 0.00 75 1017.8
20260904221406 26 24 9.7 29.0 0.00 0.00 0.00 75 1017.8
20260904221306 26 329 9.7 29.0 0.00 0.00 0.00 75 1017.9
20260904221208 27 325 9.7 29.0 0.00 0.00 0.00 75 1017.9
20260904221105 27 5 9.7 29.0 0.00 0.00 0.00 75 1018.0
20260904221001 27 317 8.0 29.0 0.00 0.00 0.00 74 1018.1
20260904220900 27 329 8.0 29.0 0.00 0.00 0.00 73 1018.1
20260904220800 27 337 6.4 29.0 0.00 0.00 0.00 73 1018.0
20260904220701 28 346 4.8 29.0 0.00 0.00 0.00 73 1017.9
20260904220558 28 313 3.2 29.0 0.00 0.00 0.00 74 1018.0
20260904220455 28 350 1.6 29.0 0.00 0.00 0.00 76 1017.9
20260904220356 28 344 0.0 14.5 0.00 0.00 0.00 76 1017.9
20260904220255 28 14 0.0 11.3 0.00 0.00 0.00 74 1017.8
20260904220154 28 97 0.0 0.0 0.00 0.00 0.00 75 1017.7
20260904220052 29 97 0.0 0.0 0.00 0.00 0.00 75 1017.7
20260904215946 29 97 0.0 0.0 0.00 0.00 0.00 75 1017.5
20260904215847 29 97 0.0 0.0 0.00 0.00 0.00 75 1017.6
20260904215746 29 97 0.0 0.0 0.00 0.00 0.00 75 1017.6
20260904215644 29 97 0.0 0.0 0.00 0.00 0.00 76 1017.6
20260904215543 29 97 0.0 0.0 0.00 0.00 0.00 76 1017.6
20260904215443 29 97 0.0 0.0 0.00 0.00 0.00 74 1017.6
20260904215341 29 97 0.0 0.0 0.00 0.00 0.00 75 1017.6
20260904215238 29 97 0.0 0.0 0.00 0.00 0.00 75 1017.7
20260904215139 29 97 0.0 0.0 0.00 0.00 0.00 75 1017.6
20260904215037 29 97 0.0 0.0 0.00 0.00 0.00 75 1017.7
20260904214932 29 97 0.0 0.0 0.00 0.00 0.00 74 1017.6
20260904214833 29 97 0.0 0.0 0.00 0.00 0.00 74 1017.7
20260904214732 29 97 0.0 0.0 0.00 0.00 0.00 75 1017.6
20260904214632 29 97 0.0 0.0 0.00 0.00 0.00 75 1017.7
20260904214530 29 97 0.0 0.0 0.00 0.00 0.00 75 1017.7
20260904214426 29 97 0.0 0.0 0.00 0.00 0.00 76 1017.7
20260904214324 29 97 0.0 0.0 0.00 0.00 0.00 75 1017.7
20260904214223 28 97 0.0 0.0 0.00 0.00 0.00 72 1017.7
20260904214123 28 97 0.0 0.0 0.00 0.00 0.00 72 1017.7
20260904214021 28 97 0.0 0.0 0.00 0.00 0.00 71 1017.6
20260904213922 28 97 0.0 0.0 0.00 0.00 0.00 72 1017.7
20260904213819 28 97 0.0 0.0 0.00 0.00 0.00 73 1017.6
20260904213718 28 97 0.0 0.0 0.00 0.00 0.00 75 1017.6
20260904213616 28 97 0.0 0.0 0.00 0.00 0.00 75 1017.5
20260904213514 28 97 0.0 0.0 0.00 0.00 0.00 74 1017.5
20260904213414 28 97 0.0 0.0 0.00 0.00 0.00 74 1017.5
20260904213314 28 97 0.0 0.0 0.00 0.00 0.00 73 1017.5
20260904213212 28 97 0.0 0.0 0.00 0.00 0.00 73 1017.5
20260904213111 28 97 0.0 0.0 0.00 0.00 0.00 74 1017.6
20260904213009 28 97 0.0 0.0 0.00 0.00 0.00 73 1017.5
20260904212859 28 97 0.0 0.0 0.00 0.00 0.00 74 1017.5
20260904212759 28 97 0.0 0.0 0.00 0.00 0.00 73 1017.5
20260904212659 28 97 0.0 0.0 0.00 0.00 0.00 74 1017.5
20260904212601 28 19 0.0 0.0 0.00 0.00 0.00 73 1017.5
20260904212500 28 18 0.0 0.0 0.00 0.00 0.00 73 1017.5
20260904212359 28 13 0.0 1.6 0.00 0.00 0.00 71 1017.6
20260904212257 28 13 1.6 4.8 0.00 0.00 0.00 73 1017.6
20260904212155 28 13 1.6 6.4 0.00 0.00 0.00 74 1017.6
20260904212055 28 13 1.6 6.4 0.00 0.00 0.00 73 1017.5
20260904211953 28 13 1.6 6.4 0.00 0.00 0.00 73 1017.5
20260904211849 28 13 1.6 6.4 0.00 0.00 0.00 71 1017.4
20260904211745 28 13 1.6 6.4 0.00 0.00 0.00 75 1017.6
20260904211647 28 13 1.6 6.4 0.00 0.00 0.00 76 1017.5
20260904211547 28 13 1.6 6.4 0.00 0.00 0.00 75 1017.5
20260904211447 28 13 1.6 6.4 0.00 0.00 0.00 74 1017.6
20260904211337 28 13 1.6 6.4 0.00 0.00 0.00 75 1017.6
20260904211238 28 5 1.6 8.0 0.00 0.00 0.00 76 1017.6
20260904211139 28 308 3.2 12.9 0.00 0.00 0.00 74 1017.5
20260904211038 28 307 3.2 12.9 0.00 0.00 0.00 74 1017.6
20260904210937 28 307 4.8 14.5 0.00 0.00 0.00 75 1017.6
20260904210835 28 307 4.8 14.5 0.00 0.00 0.00 76 1017.4
20260904210734 28 307 6.4 14.5 0.00 0.00 0.00 76 1017.5
20260904210632 28 307 6.4 14.5 0.00 0.00 0.00 76 1017.6
20260904210533 28 355 6.4 14.5 0.00 0.00 0.00 76 1017.5
20260904210431 28 355 6.4 14.5 0.00 0.00 0.00 76 1017.5
20260904210325 28 355 6.4 14.5 0.00 0.00 0.00 75 1017.5
20260904210226 28 342 6.4 14.5 0.00 0.00 0.00 75 1017.5
20260904210124 28 326 6.4 14.5 0.00 0.00 0.00 76 1017.4
20260904210024 28 325 4.8 14.5 0.00 0.00 0.00 76 1017.4
20260904205924 28 331 4.8 14.5 0.00 0.00 0.00 76 1017.3
20260904205815 28 326 4.8 12.9 0.00 0.00 0.00 76 1017.2
20260904205714 28 355 4.8 12.9 0.00 0.00 0.00 75 1017.1
20260904205615 28 343 4.8 12.9 0.00 0.00 0.00 75 1017.1
20260904205514 28 342 6.4 12.9 0.00 0.00 0.00 76 1017.0
20260904205414 28 346 6.4 12.9 0.00 0.00 0.00 76 1017.1
20260904205308 28 310 6.4 12.9 0.00 0.00 0.00 76 1017.2
20260904205208 28 310 6.4 12.9 0.00 0.00 0.00 76 1017.2
20260904205108 28 338 6.4 12.9 0.00 0.00 0.00 77 1017.2
20260904205008 28 346 6.4 12.9 0.00 0.00 0.00 77 1017.3
20260904204909 28 318 6.4 12.9 0.00 0.00 0.00 76 1017.5
20260904204802 28 344 6.4 12.9 0.00 0.00 0.00 76 1017.5
20260904204702 28 346 6.4 12.9 0.00 0.00 0.00 75 1017.5
20260904204603 28 355 6.4 12.9 0.00 0.00 0.00 76 1017.6
20260904204502 28 313 8.0 14.5 0.00 0.00 0.00 75 1017.6
20260904204402 28 294 8.0 14.5 0.00 0.00 0.00 75 1017.6
20260904204253 28 312 6.4 14.5 0.00 0.00 0.00 77 1017.6
20260904204152 28 295 6.4 14.5 0.00 0.00 0.00 75 1017.7
20260904204053 27 326 6.4 14.5 0.00 0.00 0.00 75 1017.7
20260904203951 27 335 6.4 14.5 0.00 0.00 0.00 75 1017.8
20260904203853 28 322 8.0 14.5 0.00 0.00 0.00 75 1017.9
20260904203746 28 351 8.0 16.1 0.00 0.00 0.00 74 1018.0
20260904203646 28 338 8.0 16.1 0.00 0.00 0.00 74 1017.9
20260904203547 28 338 8.0 16.1 0.00 0.00 0.00 74 1017.9
20260904203447 28 348 6.4 16.1 0.00 0.00 0.00 74 1017.9
20260904203347 28 340 6.4 16.1 0.00 0.00 0.00 74 1017.8
20260904203243 28 346 6.4 16.1 0.00 0.00 0.00 73 1017.8
20260904203140 28 41 8.0 16.1 0.00 0.00 0.00 74 1017.8
20260904203042 28 350 8.0 16.1 0.00 0.00 0.00 73 1017.8
20260904202940 28 338 8.0 16.1 0.00 0.00 0.00 73 1017.8
20260904202841 28 324 8.0 16.1 0.00 0.00 0.00 72 1017.8
20260904202733 28 336 8.0 19.3 0.00 0.00 0.00 71 1017.7
20260904202630 28 16 8.0 20.9 0.00 0.00 0.00 71 1017.7
20260904202531 29 355 9.7 22.5 0.00 0.00 0.00 70 1017.6
20260904202430 29 61 11.3 35.4 0.00 0.00 0.00 70 1017.6
20260904202330 29 49 12.9 35.4 0.00 0.00 0.00 70 1017.7
20260904202224 30 50 14.5 35.4 0.00 0.00 0.00 69 1017.8
20260904202125 30 18 14.5 35.4 0.00 0.00 0.00 68 1017.8
20260904202024 30 325 14.5 35.4 0.00 0.00 0.00 67 1017.9
20260904201925 30 325 14.5 35.4 0.00 0.00 0.00 66 1018.0
20260904201825 31 338 12.9 35.4 0.00 0.00 0.00 66 1018.0
20260904201717 31 321 11.3 35.4 0.00 0.00 0.00 64 1018.0
20260904201619 32 323 9.7 35.4 0.00 0.00 0.00 62 1017.9
20260904201518 32 305 8.0 35.4 0.00 0.00 0.00 61 1017.9
20260904201419 33 339 6.4 32.2 0.00 0.00 0.00 59 1017.9
20260904201318 33 306 4.8 24.1 0.00 0.00 0.00 58 1017.9
20260904201210 33 18 3.2 22.5 0.00 0.00 0.00 58 1017.9
20260904201110 33 320 1.6 8.0 0.00 0.00 0.00 57 1017.9
20260904201010 33 299 1.6 6.4 0.00 0.00 0.00 54 1017.9
20260904200911 33 298 1.6 6.4 0.00 0.00 0.00 54 1017.8
20260904200808 34 298 1.6 6.4 0.00 0.00 0.00 56 1017.8
20260904200702 34 298 1.6 6.4 0.00 0.00 0.00 55 1017.8
20260904200602 34 298 1.6 6.4 0.00 0.00 0.00 55 1017.8
20260904200503 34 298 1.6 6.4 0.00 0.00 0.00 55 1017.7
20260904200403 34 166 1.6 6.4 0.00 0.00 0.00 58 1017.7
20260904200302 34 164 1.6 6.4 0.00 0.00 0.00 55 1017.7
20260904200202 34 164 1.6 6.4 0.00 0.00 0.00 56 1017.7
20260904200100 33 164 1.6 6.4 0.00 0.00 0.00 54 1017.7
20260904195959 33 164 1.6 6.4 0.00 0.00 0.00 54 1017.7
20260904195859 33 164 1.6 6.4 0.00 0.00 0.00 54 1017.7
20260904195800 33 164 0.0 6.4 0.00 0.00 0.00 57 1017.6
20260904195701 33 163 0.0 6.4 0.00 0.00 0.00 57 1017.6
20260904195559 33 163 0.0 6.4 0.00 0.00 0.00 56 1017.5
20260904195456 33 163 0.0 6.4 0.00 0.00 0.00 55 1017.5
20260904195356 33 163 0.0 6.4 0.00 0.00 0.00 56 1017.4
20260904195254 33 95 0.0 0.0 0.00 0.00 0.00 60 1017.5
20260904195154 33 82 0.0 0.0 0.00 0.00 0.00 58 1017.4
20260904195052 33 82 0.0 0.0 0.00 0.00 0.00 55 1017.6
20260904194952 33 82 0.0 0.0 0.00 0.00 0.00 55 1017.6
20260904194853 33 82 0.0 0.0 0.00 0.00 0.00 56 1017.6
20260904194752 33 82 0.0 0.0 0.00 0.00 0.00 55 1017.7
20260904194652 33 82 0.0 0.0 0.00 0.00 0.00 54 1017.7
20260904194550 33 150 0.0 0.0 0.00 0.00 0.00 54 1017.8
20260904194451 33 150 0.0 0.0 0.00 0.00 0.00 55 1017.8
20260904194347 33 150 0.0 0.0 0.00 0.00 0.00 54 1017.7
20260904194249 33 150 0.0 0.0 0.00 0.00 0.00 55 1017.7
20260904194146 33 144 0.0 0.0 0.00 0.00 0.00 58 1017.7
20260904194047 33 171 0.0 0.0 0.00 0.00 0.00 56 1017.7
20260904193945 33 153 0.0 0.0 0.00 0.00 0.00 56 1017.6
20260904193843 33 152 0.0 0.0 0.00 0.00 0.00 58 1017.7
20260904193743 33 153 0.0 0.0 0.00 0.00 0.00 59 1017.6
20260904193641 33 153 0.0 0.0 0.00 0.00 0.00 60 1017.6
20260904193541 33 123 0.0 0.0 0.00 0.00 0.00 58 1017.6
20260904193440 33 114 0.0 0.0 0.00 0.00 0.00 58 1017.6
20260904193339 33 110 0.0 0.0 0.00 0.00 0.00 57 1017.6
20260904193235 33 117 0.0 0.0 0.00 0.00 0.00 58 1017.5
20260904193136 33 125 0.0 0.0 0.00 0.00 0.00 57 1017.5
20260904193035 33 132 0.0 0.0 0.00 0.00 0.00 56 1017.4
20260904192936 33 111 0.0 0.0 0.00 0.00 0.00 56 1017.4
20260904192837 33 133 0.0 0.0 0.00 0.00 0.00 56 1017.4
20260904192737 33 78 0.0 0.0 0.00 0.00 0.00 57 1017.5
20260904192636 33 123 0.0 0.0 0.00 0.00 0.00 58 1017.4
20260904192537 33 119 0.0 0.0 0.00 0.00 0.00 55 1017.4
20260904192436 33 130 0.0 0.0 0.00 0.00 0.00 56 1017.5
20260904192334 33 143 0.0 0.0 0.00 0.00 0.00 59 1017.5
20260904192233 33 142 0.0 0.0 0.00 0.00 0.00 59 1017.5
20260904192131 33 153 0.0 0.0 0.00 0.00 0.00 56 1017.6
20260904192031 33 131 0.0 0.0 0.00 0.00 0.00 58 1017.7
20260904191931 32 115 0.0 0.0 0.00 0.00 0.00 57 1017.8
20260904191827 32 116 0.0 0.0 0.00 0.00 0.00 58 1017.8
20260904191728 32 116 0.0 0.0 0.00 0.00 0.00 55 1017.9
20260904191626 32 116 0.0 0.0 0.00 0.00 0.00 57 1017.9
20260904191526 32 116 0.0 0.0 0.00 0.00 0.00 57 1018.0
20260904191424 32 116 0.0 0.0 0.00 0.00 0.00 56 1018.1
20260904191323 32 116 0.0 0.0 0.00 0.00 0.00 57 1018.1
20260904191221 32 98 0.0 0.0 0.00 0.00 0.00 55 1018.1
20260904191121 32 98 0.0 0.0 0.00 0.00 0.00 55 1018.1
20260904191023 32 98 0.0 0.0 0.00 0.00 0.00 56 1018.1
20260904190920 32 98 0.0 0.0 0.00 0.00 0.00 56 1018.2
20260904190819 32 98 0.0 0.0 0.00 0.00 0.00 58 1018.2
20260904190721 32 98 0.0 0.0 0.00 0.00 0.00 57 1018.2
20260904190619 32 98 0.0 0.0 0.00 0.00 0.00 55 1018.2
20260904190519 32 96 0.0 0.0 0.00 0.00 0.00 59 1018.2
20260904190417 32 95 0.0 0.0 0.00 0.00 0.00 56 1018.2
20260904190319 32 113 0.0 0.0 0.00 0.00 0.00 56 1018.2
20260904190219 32 113 0.0 0.0 0.00 0.00 0.00 55 1018.2
20260904190119 32 113 0.0 0.0 0.00 0.00 0.00 59 1018.3
20260904190018 32 122 0.0 0.0 0.00 0.00 0.00 57 1018.3
20260904185916 32 162 0.0 0.0 0.00 0.00 0.00 59 1018.2
20260904185816 32 162 0.0 0.0 0.00 0.00 0.00 59 1018.3
20260904185715 32 100 0.0 0.0 0.00 0.00 0.00 57 1018.2
20260904185616 32 98 0.0 0.0 0.00 0.00 0.00 59 1018.2
20260904185515 32 98 0.0 0.0 0.00 0.00 0.00 57 1018.3
20260904185414 32 98 0.0 0.0 0.00 0.00 0.00 57 1018.3
20260904185314 32 90 0.0 0.0 0.00 0.00 0.00 56 1018.3
20260904185213 32 80 0.0 0.0 0.00 0.00 0.00 55 1018.4
20260904185110 32 79 0.0 0.0 0.00 0.00 0.00 57 1018.4
20260904185004 32 80 0.0 0.0 0.00 0.00 0.00 54 1018.4
20260904184904 32 80 0.0 0.0 0.00 0.00 0.00 55 1018.4
20260904184804 32 80 0.0 0.0 0.00 0.00 0.00 56 1018.4
20260904184704 32 80 0.0 0.0 0.00 0.00 0.00 56 1018.4
20260904184605 32 62 0.0 0.0 0.00 0.00 0.00 57 1018.4
20260904184500 32 62 0.0 0.0 0.00 0.00 0.00 60 1018.4
20260904184359 32 62 0.0 0.0 0.00 0.00 0.00 56 1018.4
20260904184256 32 62 0.0 0.0 0.00 0.00 0.00 56 1018.4
20260904184157 32 62 0.0 0.0 0.00 0.00 0.00 58 1018.4
20260904184054 32 62 0.0 0.0 0.00 0.00 0.00 57 1018.6
20260904183953 32 62 0.0 0.0 0.00 0.00 0.00 58 1018.6
20260904183853 32 62 0.0 0.0 0.00 0.00 0.00 59 1018.6
20260904183752 32 62 0.0 0.0 0.00 0.00 0.00 59 1018.7
20260904183651 32 62 0.0 0.0 0.00 0.00 0.00 60 1018.7
20260904183549 32 105 0.0 0.0 0.00 0.00 0.00 61 1018.7
20260904183443 32 105 0.0 0.0 0.00 0.00 0.00 61 1018.7
20260904183345 32 105 0.0 0.0 0.00 0.00 0.00 59 1018.7
20260904183243 32 105 0.0 0.0 0.00 0.00 0.00 59 1018.8
20260904183144 32 104 0.0 0.0 0.00 0.00 0.00 58 1018.8
20260904183041 32 104 0.0 0.0 0.00 0.00 0.00 58 1018.8
20260904182942 32 104 0.0 0.0 0.00 0.00 0.00 62 1018.8
20260904182842 32 104 0.0 0.0 0.00 0.00 0.00 60 1018.8
20260904182741 32 104 0.0 0.0 0.00 0.00 0.00 60 1018.8
20260904182642 32 102 0.0 0.0 0.00 0.00 0.00 62 1018.9
20260904182541 32 102 0.0 0.0 0.00 0.00 0.00 57 1018.9
20260904182443 32 98 0.0 0.0 0.00 0.00 0.00 59 1018.9
20260904182342 32 108 0.0 0.0 0.00 0.00 0.00 60 1018.9
20260904182242 32 115 0.0 0.0 0.00 0.00 0.00 61 1018.9
20260904182141 32 169 0.0 0.0 0.00 0.00 0.00 62 1018.9
20260904182041 32 178 0.0 0.0 0.00 0.00 0.00 60 1018.9
20260904181942 32 179 0.0 0.0 0.00 0.00 0.00 62 1018.9
20260904181842 32 147 0.0 0.0 0.00 0.00 0.00 61 1018.9
20260904181741 32 136 0.0 0.0 0.00 0.00 0.00 60 1019.0
20260904181643 32 114 0.0 0.0 0.00 0.00 0.00 62 1018.9
20260904181541 32 76 0.0 0.0 0.00 0.00 0.00 60 1018.9
20260904181442 32 76 0.0 0.0 0.00 0.00 0.00 59 1019.0
20260904181343 32 76 0.0 0.0 0.00 0.00 0.00 61 1019.0
20260904181241 32 76 0.0 0.0 0.00 0.00 0.00 58 1018.9
20260904181143 32 76 0.0 0.0 0.00 0.00 0.00 61 1019.0
20260904181041 32 78 0.0 0.0 0.00 0.00 0.00 65 1018.9
20260904180943 32 36 0.0 0.0 0.00 0.00 0.00 64 1019.0
20260904180838 32 34 0.0 0.0 0.00 0.00 0.00 64 1018.9
20260904180738 32 22 0.0 0.0 0.00 0.00 0.00 64 1019.0
20260904180638 32 22 0.0 0.0 0.00 0.00 0.00 62 1018.9
20260904180537 32 22 0.0 0.0 0.00 0.00 0.00 61 1019.0
20260904180439 32 22 0.0 0.0 0.00 0.00 0.00 60 1019.0
20260904180337 32 22 0.0 0.0 0.00 0.00 0.00 60 1019.0
20260904180238 32 22 0.0 0.0 0.00 0.00 0.00 60 1019.0
20260904180137 32 22 0.0 0.0 0.00 0.00 0.00 63 1019.0
20260904180038 32 21 0.0 0.0 0.00 0.00 0.00 62 1019.1
20260904175939 32 31 0.0 0.0 0.00 0.00 0.00 63 1019.1
20260904175837 32 30 0.0 0.0 0.00 0.00 0.00 63 1019.1
20260904175737 32 32 0.0 0.0 0.00 0.00 0.00 65 1019.1
20260904175638 31 32 0.0 0.0 0.00 0.00 0.00 64 1019.1
20260904175538 31 32 0.0 0.0 0.00 0.00 0.00 63 1019.2
20260904175437 31 63 0.0 0.0 0.00 0.00 0.00 64 1019.2
20260904175338 31 80 0.0 0.0 0.00 0.00 0.00 63 1019.2
20260904175243 31 81 0.0 0.0 0.00 0.00 0.00 62 1019.1
20260904175138 31 82 0.0 0.0 0.00 0.00 0.00 62 1019.1
20260904175037 31 84 0.0 0.0 0.00 0.00 0.00 62 1019.2
20260904174939 31 63 0.0 0.0 0.00 0.00 0.00 61 1019.2
20260904174837 32 60 0.0 0.0 0.00 0.00 0.00 64 1019.3
20260904174738 31 33 0.0 0.0 0.00 0.00 0.00 65 1019.2
20260904174638 31 37 0.0 0.0 0.00 0.00 0.00 63 1019.3
20260904174538 31 37 0.0 0.0 0.00 0.00 0.00 63 1019.3
20260904174437 31 34 0.0 0.0 0.00 0.00 0.00 62 1019.3
20260904174339 31 34 0.0 0.0 0.00 0.00 0.00 62 1019.2
20260904174237 31 34 0.0 0.0 0.00 0.00 0.00 62 1019.4
20260904174139 31 63 0.0 0.0 0.00 0.00 0.00 62 1019.3
20260904174039 31 65 0.0 0.0 0.00 0.00 0.00 64 1019.4
20260904173937 31 67 0.0 0.0 0.00 0.00 0.00 61 1019.4
20260904173839 31 67 0.0 0.0 0.00 0.00 0.00 62 1019.4
20260904173737 31 67 0.0 0.0 0.00 0.00 0.00 62 1019.4
20260904173639 31 67 0.0 0.0 0.00 0.00 0.00 63 1019.4
20260904173534 31 65 0.0 0.0 0.00 0.00 0.00 64 1019.4
20260904173434 31 326 0.0 0.0 0.00 0.00 0.00 60 1019.4
20260904173333 31 326 0.0 0.0 0.00 0.00 0.00 60 1019.4
20260904173233 31 327 0.0 0.0 0.00 0.00 0.00 60 1019.4
20260904173134 31 327 0.0 0.0 0.00 0.00 0.00 62 1019.4
20260904173034 31 327 0.0 0.0 0.00 0.00 0.00 62 1019.4
20260904172933 31 327 0.0 0.0 0.00 0.00 0.00 61 1019.4
20260904172833 31 320 0.0 0.0 0.00 0.00 0.00 61 1019.4
20260904172734 31 319 0.0 0.0 0.00 0.00 0.00 63 1019.4
20260904172634 31 319 0.0 0.0 0.00 0.00 0.00 60 1019.5
20260904172534 31 318 0.0 0.0 0.00 0.00 0.00 61 1019.5
20260904172433 31 318 0.0 0.0 0.00 0.00 0.00 62 1019.5
20260904172333 32 318 0.0 0.0 0.00 0.00 0.00 60 1019.4
20260904172234 32 318 0.0 0.0 0.00 0.00 0.00 63 1019.4
20260904172133 32 319 0.0 0.0 0.00 0.00 0.00 61 1019.4
20260904172033 32 318 0.0 0.0 0.00 0.00 0.00 62 1019.4
20260904171934 32 331 0.0 0.0 0.00 0.00 0.00 61 1019.4
20260904171834 32 334 0.0 0.0 0.00 0.00 0.00 60 1019.4
20260904171734 32 334 0.0 0.0 0.00 0.00 0.00 60 1019.5
20260904171633 32 331 0.0 0.0 0.00 0.00 0.00 61 1019.5
20260904171533 32 336 0.0 0.0 0.00 0.00 0.00 63 1019.4
20260904171435 32 290 0.0 0.0 0.00 0.00 0.00 61 1019.5
20260904171333 32 291 0.0 0.0 0.00 0.00 0.00 63 1019.5
20260904171235 32 291 0.0 0.0 0.00 0.00 0.00 60 1019.6
20260904171133 32 290 0.0 0.0 0.00 0.00 0.00 62 1019.5
20260904171035 32 287 0.0 0.0 0.00 0.00 0.00 62 1019.5
20260904170934 32 286 0.0 0.0 0.00 0.00 0.00 60 1019.5
20260904170834 32 287 0.0 0.0 0.00 0.00 0.00 62 1019.5
20260904170732 32 286 0.0 0.0 0.00 0.00 0.00 63 1019.6
20260904170633 32 46 0.0 0.0 0.00 0.00 0.00 62 1019.7
20260904170533 32 46 0.0 0.0 0.00 0.00 0.00 60 1019.6
20260904170434 32 46 0.0 0.0 0.00 0.00 0.00 60 1019.6
20260904170334 32 46 0.0 0.0 0.00 0.00 0.00 60 1019.5
20260904170231 32 47 0.0 0.0 0.00 0.00 0.00 62 1019.6
20260904170129 32 104 0.0 0.0 0.00 0.00 0.00 60 1019.6
20260904170030 32 104 0.0 0.0 0.00 0.00 0.00 60 1019.6
20260904165929 32 104 0.0 0.0 0.00 0.00 0.00 61 1019.6
20260904165829 32 103 0.0 0.0 0.00 0.00 0.00 60 1019.6
20260904165731 32 103 0.0 0.0 0.00 0.00 0.00 60 1019.6
20260904165629 32 103 0.0 0.0 0.00 0.00 0.00 62 1019.6
20260904165529 32 101 0.0 0.0 0.00 0.00 0.00 62 1019.6
20260904165431 32 101 0.0 0.0 0.00 0.00 0.00 62 1019.7
20260904165331 32 101 0.0 0.0 0.00 0.00 0.00 61 1019.7
20260904165229 32 101 0.0 0.0 0.00 0.00 0.00 61 1019.7
20260904165130 32 101 0.0 0.0 0.00 0.00 0.00 61 1019.7
20260904165030 32 101 0.0 0.0 0.00 0.00 0.00 61 1019.6
20260904164930 32 101 0.0 0.0 0.00 0.00 0.00 64 1019.7
20260904164829 32 101 0.0 0.0 0.00 0.00 0.00 65 1019.7
20260904164729 31 101 0.0 0.0 0.00 0.00 0.00 63 1019.7
20260904164630 31 101 0.0 0.0 0.00 0.00 0.00 64 1019.7
20260904164531 31 101 0.0 0.0 0.00 0.00 0.00 61 1019.7
20260904164429 31 101 0.0 0.0 0.00 0.00 0.00 62 1019.8
20260904164329 31 101 0.0 0.0 0.00 0.00 0.00 62 1019.7
20260904164229 31 101 0.0 0.0 0.00 0.00 0.00 63 1019.9
20260904164131 31 101 0.0 0.0 0.00 0.00 0.00 63 1019.9
20260904164030 31 101 0.0 0.0 0.00 0.00 0.00 62 1019.9
20260904163930 31 92 0.0 0.0 0.00 0.00 0.00 64 1019.9
20260904163830 31 37 0.0 0.0 0.00 0.00 0.00 63 1019.9
20260904163731 31 37 0.0 0.0 0.00 0.00 0.00 62 1020.0
20260904163622 31 37 0.0 0.0 0.00 0.00 0.00 62 1020.0
20260904163522 31 37 0.0 0.0 0.00 0.00 0.00 64 1020.0
20260904163421 31 34 0.0 0.0 0.00 0.00 0.00 62 1019.9
20260904163321 31 28 0.0 0.0 0.00 0.00 0.00 62 1020.0
20260904163223 31 9 0.0 0.0 0.00 0.00 0.00 62 1020.0
20260904163123 31 5 0.0 0.0 0.00 0.00 0.00 62 1019.9
20260904163021 31 5 0.0 0.0 0.00 0.00 0.00 61 1020.0
20260904162921 31 5 0.0 0.0 0.00 0.00 0.00 63 1020.0
20260904162822 31 5 0.0 0.0 0.00 0.00 0.00 61 1020.0
20260904162723 31 5 0.0 0.0 0.00 0.00 0.00 61 1020.2
20260904162622 31 0 0.0 0.0 0.00 0.00 0.00 61 1020.0
20260904162521 31 0 0.0 0.0 0.00 0.00 0.00 60 1020.0
20260904162421 31 0 0.0 0.0 0.00 0.00 0.00 61 1020.2
20260904162322 31 0 0.0 0.0 0.00 0.00 0.00 62 1020.2
20260904162222 31 0 0.0 0.0 0.00 0.00 0.00 62 1020.2
20260904162122 31 0 0.0 0.0 0.00 0.00 0.00 62 1020.2
20260904162022 31 0 0.0 0.0 0.00 0.00 0.00 63 1020.2
20260904161923 31 0 0.0 0.0 0.00 0.00 0.00 64 1020.2
20260904161821 31 0 0.0 0.0 0.00 0.00 0.00 64 1020.2
20260904161722 31 0 0.0 0.0 0.00 0.00 0.00 65 1020.2
20260904161623 31 0 0.0 0.0 0.00 0.00 0.00 63 1020.3
20260904161521 31 5 0.0 0.0 0.00 0.00 0.00 63 1020.3
20260904161422 31 5 0.0 0.0 0.00 0.00 0.00 62 1020.3
20260904161322 31 5 0.0 0.0 0.00 0.00 0.00 61 1020.4
20260904161223 31 5 0.0 0.0 0.00 0.00 0.00 62 1020.4
20260904161122 31 9 0.0 0.0 0.00 0.00 0.00 64 1020.3
20260904161023 31 5 0.0 0.0 0.00 0.00 0.00 61 1020.4
20260904160921 31 5 0.0 0.0 0.00 0.00 0.00 63 1020.4
20260904160818 31 5 0.0 0.0 0.00 0.00 0.00 62 1020.4
20260904160718 31 5 0.0 0.0 0.00 0.00 0.00 62 1020.4
20260904160616 31 333 0.0 0.0 0.00 0.00 0.00 62 1020.4
20260904160514 31 333 0.0 0.0 0.00 0.00 0.00 61 1020.4
20260904160414 31 333 0.0 0.0 0.00 0.00 0.00 61 1020.4
20260904160308 31 331 0.0 0.0 0.00 0.00 0.00 62 1020.4
20260904160208 31 332 0.0 0.0 0.00 0.00 0.00 61 1020.3
20260904160106 31 342 0.0 0.0 0.00 0.00 0.00 64 1020.4
20260904160005 31 5 0.0 0.0 0.00 0.00 0.00 63 1020.3
20260904155905 31 5 0.0 0.0 0.00 0.00 0.00 63 1020.4
20260904155802 31 5 0.0 0.0 0.00 0.00 0.00 65 1020.4
20260904155702 31 0 0.0 0.0 0.00 0.00 0.00 63 1020.4
20260904155559 31 0 0.0 0.0 0.00 0.00 0.00 64 1020.3
20260904155501 31 0 0.0 0.0 0.00 0.00 0.00 63 1020.4
20260904155358 31 0 0.0 0.0 0.00 0.00 0.00 61 1020.4
20260904155257 31 0 0.0 0.0 0.00 0.00 0.00 63 1020.3
20260904155157 31 0 0.0 0.0 0.00 0.00 0.00 65 1020.3
20260904155053 31 0 0.0 0.0 0.00 0.00 0.00 64 1020.2
20260904154951 31 0 0.0 0.0 0.00 0.00 0.00 63 1020.3
20260904154848 31 0 0.0 0.0 0.00 0.00 0.00 62 1020.3
20260904154748 31 0 0.0 0.0 0.00 0.00 0.00 67 1020.3
20260904154645 31 0 0.0 0.0 0.00 0.00 0.00 69 1020.3
20260904154544 31 0 0.0 0.0 0.00 0.00 0.00 65 1020.3
20260904154444 31 0 0.0 0.0 0.00 0.00 0.00 65 1020.3
20260904154343 31 0 0.0 0.0 0.00 0.00 0.00 66 1020.3
20260904154240 31 0 0.0 0.0 0.00 0.00 0.00 67 1020.3
20260904154140 31 0 0.0 0.0 0.00 0.00 0.00 66 1020.3
20260904154038 31 0 0.0 0.0 0.00 0.00 0.00 66 1020.3
20260904153935 31 0 0.0 0.0 0.00 0.00 0.00 68 1020.2
20260904153837 31 0 0.0 0.0 0.00 0.00 0.00 67 1020.2
20260904153733 30 0 0.0 0.0 0.00 0.00 0.00 65 1020.3
20260904153635 30 0 0.0 0.0 0.00 0.00 0.00 65 1020.3
20260904153532 30 0 0.0 0.0 0.00 0.00 0.00 64 1020.3
20260904153428 30 0 0.0 0.0 0.00 0.00 0.00 66 1020.3
20260904153325 30 0 0.0 0.0 0.00 0.00 0.00 68 1020.2
20260904153225 30 0 0.0 0.0 0.00 0.00 0.00 64 1020.3
20260904153123 30 0 0.0 0.0 0.00 0.00 0.00 65 1020.3
20260904153024 30 0 0.0 0.0 0.00 0.00 0.00 65 1020.3
20260904152923 30 0 0.0 0.0 0.00 0.00 0.00 65 1020.3
20260904152820 30 0 0.0 0.0 0.00 0.00 0.00 65 1020.3
20260904152718 30 0 0.0 1.6 0.00 0.00 0.00 67 1020.3
20260904152618 30 0 0.0 1.6 0.00 0.00 0.00 67 1020.3
20260904152516 30 0 0.0 1.6 0.00 0.00 0.00 66 1020.3
20260904152415 30 0 0.0 1.6 0.00 0.00 0.00 67 1020.3
20260904152314 30 0 0.0 1.6 0.00 0.00 0.00 68 1020.3
20260904152211 30 0 0.0 1.6 0.00 0.00 0.00 69 1020.3
20260904152111 30 0 0.0 1.6 0.00 0.00 0.00 69 1020.3
20260904152009 30 0 0.0 1.6 0.00 0.00 0.00 71 1020.3
20260904151901 30 0 0.0 1.6 0.00 0.00 0.00 71 1020.2
20260904151801 30 0 0.0 1.6 0.00 0.00 0.00 70 1020.2
20260904151701 30 340 0.0 1.6 0.00 0.00 0.00 71 1020.3
20260904151600 30 340 0.0 1.6 0.00 0.00 0.00 69 1020.2
20260904151458 30 340 0.0 1.6 0.00 0.00 0.00 70 1020.2
20260904151355 29 340 0.0 1.6 0.00 0.00 0.00 72 1020.2
20260904151256 29 340 0.0 1.6 0.00 0.00 0.00 72 1020.2
20260904151155 29 340 0.0 1.6 0.00 0.00 0.00 69 1020.2
20260904151053 29 340 0.0 1.6 0.00 0.00 0.00 70 1020.3
20260904150952 29 340 0.0 4.8 0.00 0.00 0.00 71 1020.3
20260904150848 29 340 1.6 6.4 0.00 0.00 0.00 68 1020.3
20260904150746 29 340 1.6 6.4 0.00 0.00 0.00 69 1020.3
20260904150648 29 340 1.6 6.4 0.00 0.00 0.00 69 1020.3
20260904150547 29 340 3.2 8.0 0.00 0.00 0.00 70 1020.3
20260904150446 29 341 3.2 8.0 0.00 0.00 0.00 71 1020.3
20260904150341 29 341 3.2 8.0 0.00 0.00 0.00 71 1020.0
20260904150240 29 341 3.2 8.0 0.00 0.00 0.00 69 1020.2
20260904150140 29 342 3.2 8.0 0.00 0.00 0.00 69 1020.2
20260904150038 29 343 3.2 8.0 0.00 0.00 0.00 69 1020.2
20260904145935 29 343 3.2 8.0 0.00 0.00 0.00 71 1020.2
20260904145836 29 343 3.2 8.0 0.00 0.00 0.00 70 1020.2
20260904145734 29 344 3.2 8.0 0.00 0.00 0.00 71 1020.2
20260904145631 29 343 3.2 6.4 0.00 0.00 0.00 71 1020.2
20260904145532 29 342 3.2 6.4 0.00 0.00 0.00 70 1020.3
20260904145430 29 342 3.2 6.4 0.00 0.00 0.00 73 1020.3
20260904145330 29 342 3.2 6.4 0.00 0.00 0.00 73 1020.2
20260904145228 29 342 3.2 6.4 0.00 0.00 0.00 73 1020.3
20260904145124 29 342 3.2 8.0 0.00 0.00 0.00 73 1020.3
20260904145023 29 342 3.2 8.0 0.00 0.00 0.00 73 1020.3
20260904144923 29 342 4.8 8.0 0.00 0.00 0.00 72 1020.4
20260904144819 29 342 4.8 8.0 0.00 0.00 0.00 73 1020.3
20260904144719 29 341 3.2 8.0 0.00 0.00 0.00 72 1020.3
20260904144617 29 341 4.8 8.0 0.00 0.00 0.00 72 1020.3
20260904144515 28 340 4.8 8.0 0.00 0.00 0.00 73 1020.2
20260904144413 28 340 4.8 8.0 0.00 0.00 0.00 71 1020.4
20260904144311 28 340 4.8 8.0 0.00 0.00 0.00 73 1020.3
20260904144207 29 344 4.8 6.4 0.00 0.00 0.00 73 1020.4
20260904144109 29 355 4.8 6.4 0.00 0.00 0.00 72 1020.3
20260904144008 29 355 4.8 6.4 0.00 0.00 0.00 72 1020.3
20260904143907 29 347 4.8 6.4 0.00 0.00 0.00 72 1020.3
20260904143804 29 344 4.8 6.4 0.00 0.00 0.00 72 1020.3
20260904143701 29 344 4.8 6.4 0.00 0.00 0.00 71 1020.3
20260904143601 29 21 3.2 6.4 0.00 0.00 0.00 72 1020.3
20260904143501 29 31 3.2 6.4 0.00 0.00 0.00 72 1020.3
20260904143401 29 31 3.2 6.4 0.00 0.00 0.00 73 1020.3
20260904143255 29 32 1.6 6.4 0.00 0.00 0.00 72 1020.2
20260904143156 29 328 1.6 6.4 0.00 0.00 0.00 73 1020.3
20260904143057 29 325 1.6 6.4 0.00 0.00 0.00 72 1020.3
20260904142954 29 325 1.6 6.4 0.00 0.00 0.00 73 1020.3
20260904142851 29 325 1.6 6.4 0.00 0.00 0.00 71 1020.3
20260904142749 29 325 0.0 6.4 0.00 0.00 0.00 72 1020.2
20260904142647 29 325 0.0 4.8 0.00 0.00 0.00 71 1020.2
20260904142549 29 340 0.0 1.6 0.00 0.00 0.00 71 1020.3
20260904142448 29 5 0.0 1.6 0.00 0.00 0.00 73 1020.2
20260904142346 29 11 0.0 0.0 0.00 0.00 0.00 74 1020.2
20260904142239 29 10 0.0 0.0 0.00 0.00 0.00 74 1020.2
20260904142140 29 11 0.0 0.0 0.00 0.00 0.00 72 1020.2
20260904142039 29 11 0.0 0.0 0.00 0.00 0.00 73 1020.2
20260904141940 29 11 0.0 0.0 0.00 0.00 0.00 73 1020.2
20260904141840 29 11 0.0 0.0 0.00 0.00 0.00 73 1020.2
20260904141735 29 10 0.0 1.6 0.00 0.00 0.00 74 1020.2
20260904141634 29 9 0.0 1.6 0.00 0.00 0.00 72 1020.2
20260904141533 29 9 0.0 1.6 0.00 0.00 0.00 72 1020.2
20260904141432 29 9 0.0 1.6 0.00 0.00 0.00 72 1020.2
20260904141330 29 9 0.0 3.2 0.00 0.00 0.00 72 1020.2
20260904141227 29 5 0.0 3.2 0.00 0.00 0.00 71 1020.2
20260904141126 29 5 0.0 3.2 0.00 0.00 0.00 72 1020.2
20260904141026 29 5 0.0 3.2 0.00 0.00 0.00 72 1020.2
20260904140925 29 5 0.0 3.2 0.00 0.00 0.00 71 1020.2
20260904140823 29 0 0.0 3.2 0.00 0.00 0.00 70 1020.2
20260904140720 29 350 0.0 3.2 0.00 0.00 0.00 75 1020.2
20260904140617 29 355 0.0 3.2 0.00 0.00 0.00 71 1020.3
20260904140518 29 355 0.0 3.2 0.00 0.00 0.00 73 1020.2
20260904140418 29 355 0.0 3.2 0.00 0.00 0.00 73 1020.3
20260904140318 29 355 0.0 0.0 0.00 0.00 0.00 72 1020.3
20260904140109 29 355 0.0 0.0 0.00 0.00 0.00 72 1020.0
20260904140008 29 355 0.0 0.0 0.00 0.00 0.00 71 1020.0
20260904135909 29 355 0.0 0.0 0.00 0.00 0.00 73 1020.0
20260904135808 29 355 0.0 0.0 0.00 0.00 0.00 72 1020.0
20260904135700 29 348 0.0 0.0 0.00 0.00 0.00 72 1020.0
20260904135601 29 330 0.0 0.0 0.00 0.00 0.00 73 1020.0
20260904135501 28 303 0.0 0.0 0.00 0.00 0.00 72 1020.0
20260904135402 28 303 0.0 0.0 0.00 0.00 0.00 73 1020.0
20260904135305 28 303 0.0 1.6 0.00 0.00 0.00 71 1020.0
20260904135158 28 303 0.0 3.2 0.00 0.00 0.00 72 1020.0
20260904135058 28 303 0.0 3.2 0.00 0.00 0.00 72 1020.0
20260904134958 28 303 0.0 3.2 0.00 0.00 0.00 72 1019.9
20260904134857 28 303 0.0 3.2 0.00 0.00 0.00 73 1019.9
20260904134755 28 303 1.6 3.2 0.00 0.00 0.00 73 1019.8
20260904134648 28 303 1.6 4.8 0.00 0.00 0.00 74 1019.8
20260904134546 28 303 1.6 4.8 0.00 0.00 0.00 72 1019.8
20260904134447 28 303 1.6 4.8 0.00 0.00 0.00 73 1019.8
20260904134348 28 295 1.6 4.8 0.00 0.00 0.00 73 1019.8
20260904134244 28 296 3.2 4.8 0.00 0.00 0.00 73 1019.8
20260904134140 28 296 3.2 4.8 0.00 0.00 0.00 74 1019.7
20260904134037 28 296 3.2 4.8 0.00 0.00 0.00 75 1019.7
20260904133938 28 296 3.2 4.8 0.00 0.00 0.00 75 1019.8
20260904133836 28 296 3.2 4.8 0.00 0.00 0.00 73 1019.8
20260904133738 28 297 3.2 4.8 0.00 0.00 0.00 73 1019.8
20260904133635 28 297 3.2 4.8 0.00 0.00 0.00 73 1019.8
20260904133531 28 297 3.2 4.8 0.00 0.00 0.00 73 1019.8
20260904133432 28 298 3.2 4.8 0.00 0.00 0.00 73 1019.8
20260904133331 28 309 3.2 4.8 0.00 0.00 0.00 75 1019.7
20260904133232 28 311 3.2 4.8 0.00 0.00 0.00 75 1019.8
20260904133122 28 292 3.2 4.8 0.00 0.00 0.00 75 1019.7
20260904133022 28 292 3.2 4.8 0.00 0.00 0.00 74 1019.7
20260904132921 28 292 3.2 4.8 0.00 0.00 0.00 74 1019.6
20260904132821 28 274 3.2 4.8 0.00 0.00 0.00 75 1019.7
20260904132721 28 299 3.2 4.8 0.00 0.00 0.00 75 1019.7
20260904132617 28 299 3.2 4.8 0.00 0.00 0.00 74 1019.9
20260904132516 28 300 3.2 6.4 0.00 0.00 0.00 75 1019.7
20260904132416 28 303 3.2 8.0 0.00 0.00 0.00 75 1019.7
20260904132316 28 303 3.2 8.0 0.00 0.00 0.00 75 1019.8
20260904132216 27 302 3.2 8.0 0.00 0.00 0.00 76 1019.7
20260904132114 27 302 3.2 8.0 0.00 0.00 0.00 76 1019.8
20260904132014 27 302 3.2 8.0 0.00 0.00 0.00 76 1019.8
20260904131911 27 302 3.2 8.0 0.00 0.00 0.00 74 1019.8
20260904131812 27 300 3.2 8.0 0.00 0.00 0.00 75 1019.7
20260904131709 27 300 3.2 8.0 0.00 0.00 0.00 74 1019.7
20260904131601 27 298 1.6 8.0 0.00 0.00 0.00 73 1019.8
20260904131501 27 294 1.6 8.0 0.00 0.00 0.00 75 1019.8
20260904131359 27 294 1.6 4.8 0.00 0.00 0.00 76 1019.7
20260904131300 27 294 1.6 4.8 0.00 0.00 0.00 76 1019.8
20260904131200 27 294 1.6 6.4 0.00 0.00 0.00 76 1019.8
20260904131053 27 294 1.6 9.7 0.00 0.00 0.00 77 1019.7
20260904130956 27 294 1.6 9.7 0.00 0.00 0.00 77 1019.8
20260904130854 27 294 1.6 9.7 0.00 0.00 0.00 77 1019.8
20260904130754 27 294 1.6 9.7 0.00 0.00 0.00 77 1019.8
20260904130654 27 294 1.6 9.7 0.00 0.00 0.00 78 1019.8
20260904130548 27 294 1.6 9.7 0.00 0.00 0.00 77 1019.8
20260904130447 27 294 1.6 9.7 0.00 0.00 0.00 77 1019.7
20260904130348 27 294 1.6 9.7 0.00 0.00 0.00 77 1019.8
20260904130249 27 295 1.6 9.7 0.00 0.00 0.00 77 1019.8
20260904130148 27 261 1.6 4.8 0.00 0.00 0.00 78 1019.8
20260904130042 27 284 1.6 4.8 0.00 0.00 0.00 77 1019.8
20260904125942 27 284 1.6 4.8 0.00 0.00 0.00 78 1019.7
20260904125840 27 267 1.6 4.8 0.00 0.00 0.00 78 1019.7
20260904125740 27 289 1.6 4.8 0.00 0.00 0.00 79 1019.7
20260904125638 27 289 3.2 4.8 0.00 0.00 0.00 78 1019.8
20260904125534 27 289 3.2 4.8 0.00 0.00 0.00 78 1019.7
20260904125432 27 289 3.2 4.8 0.00 0.00 0.00 78 1019.8
20260904125330 27 285 3.2 4.8 0.00 0.00 0.00 78 1019.8
20260904125231 27 284 3.2 4.8 0.00 0.00 0.00 77 1019.8
20260904125132 27 274 3.2 4.8 0.00 0.00 0.00 78 1019.7
20260904125029 27 226 3.2 4.8 0.00 0.00 0.00 78 1019.7
20260904124927 27 225 3.2 4.8 0.00 0.00 0.00 78 1019.7
20260904124828 27 239 3.2 4.8 0.00 0.00 0.00 78 1019.8
20260904124728 27 290 3.2 4.8 0.00 0.00 0.00 79 1019.7
20260904124625 27 290 3.2 4.8 0.00 0.00 0.00 79 1019.6
20260904124519 27 290 1.6 4.8 0.00 0.00 0.00 79 1019.7
20260904124415 27 290 1.6 4.8 0.00 0.00 0.00 79 1019.7
20260904124316 27 290 1.6 4.8 0.00 0.00 0.00 79 1019.7
20260904124215 27 310 1.6 4.8 0.00 0.00 0.00 79 1019.7
20260904124116 27 310 1.6 4.8 0.00 0.00 0.00 79 1019.6
20260904124012 27 309 1.6 4.8 0.00 0.00 0.00 79 1019.7
20260904123910 27 310 1.6 4.8 0.00 0.00 0.00 79 1019.7
20260904123809 27 311 1.6 4.8 0.00 0.00 0.00 79 1019.6
20260904123710 26 311 1.6 4.8 0.00 0.00 0.00 80 1019.6
20260904123610 26 311 1.6 4.8 0.00 0.00 0.00 80 1019.6
20260904123506 26 117 1.6 4.8 0.00 0.00 0.00 80 1019.6
20260904123403 26 117 1.6 4.8 0.00 0.00 0.00 80 1019.6
20260904123304 26 157 1.6 4.8 0.00 0.00 0.00 79 1019.6
20260904123203 26 157 1.6 4.8 0.00 0.00 0.00 79 1019.7
20260904123103 26 155 1.6 4.8 0.00 0.00 0.00 80 1019.7
20260904122958 26 155 1.6 4.8 0.00 0.00 0.00 80 1019.7
20260904122858 26 155 1.6 4.8 0.00 0.00 0.00 80 1019.7
20260904122757 26 155 1.6 4.8 0.00 0.00 0.00 80 1019.7
20260904122655 26 155 1.6 4.8 0.00 0.00 0.00 80 1019.7
20260904122554 26 157 1.6 4.8 0.00 0.00 0.00 80 1019.7
20260904122449 26 153 3.2 4.8 0.00 0.00 0.00 82 1019.7
20260904122347 26 153 3.2 4.8 0.00 0.00 0.00 82 1019.7
20260904122248 26 161 3.2 4.8 0.00 0.00 0.00 82 1019.8
20260904122148 26 117 3.2 4.8 0.00 0.00 0.00 82 1019.7
20260904122047 26 157 3.2 3.2 0.00 0.00 0.00 81 1019.7
20260904121944 26 153 1.6 3.2 0.00 0.00 0.00 82 1019.6
20260904121845 26 153 1.6 3.2 0.00 0.00 0.00 81 1019.6
20260904121743 26 153 1.6 6.4 0.00 0.00 0.00 81 1019.6
20260904121644 26 152 1.6 6.4 0.00 0.00 0.00 81 1019.6
20260904121541 26 153 1.6 6.4 0.00 0.00 0.00 81 1019.6
20260904121437 26 155 1.6 6.4 0.00 0.00 0.00 81 1019.6
20260904121335 26 113 1.6 6.4 0.00 0.00 0.00 81 1019.6
20260904121234 26 109 1.6 6.4 0.00 0.00 0.00 81 1019.6
20260904121133 26 110 1.6 6.4 0.00 0.00 0.00 81 1019.6
20260904121031 26 111 1.6 6.4 0.00 0.00 0.00 82 1019.5
20260904120932 26 111 1.6 6.4 0.00 0.00 0.00 81 1019.5
20260904120830 26 111 1.6 6.4 0.00 0.00 0.00 81 1019.6
20260904120728 26 109 1.6 4.8 0.00 0.00 0.00 82 1019.6
20260904120628 26 101 0.0 4.8 0.00 0.00 0.00 82 1019.6
20260904120526 26 224 0.0 4.8 0.00 0.00 0.00 81 1019.5
20260904120422 25 223 0.0 4.8 0.00 0.00 0.00 82 1019.6
20260904120324 25 214 0.0 4.8 0.00 0.00 0.00 82 1019.5
20260904120221 25 212 0.0 6.4 0.00 0.00 0.00 82 1019.5
20260904120121 25 207 0.0 6.4 0.00 0.00 0.00 82 1019.4
20260904120020 25 209 0.0 6.4 0.00 0.00 0.00 83 1019.5
20260904115913 25 208 1.6 6.4 0.00 0.00 0.00 83 1019.4
20260904115812 25 207 1.6 6.4 0.00 0.00 0.00 83 1019.4
20260904115712 25 207 1.6 6.4 0.00 0.00 0.00 83 1019.3
20260904115612 25 234 1.6 6.4 0.00 0.00 0.00 83 1019.4
20260904115509 25 232 3.2 6.4 0.00 0.00 0.00 83 1019.3
20260904115407 25 232 3.2 6.4 0.00 0.00 0.00 83 1019.3
20260904115307 25 180 3.2 6.4 0.00 0.00 0.00 83 1019.4
20260904115207 25 194 3.2 6.4 0.00 0.00 0.00 83 1019.4
20260904115106 25 194 3.2 6.4 0.00 0.00 0.00 84 1019.4
20260904115004 25 194 3.2 6.4 0.00 0.00 0.00 84 1019.3
20260904114901 25 194 3.2 6.4 0.00 0.00 0.00 84 1019.3
20260904114801 25 194 3.2 6.4 0.00 0.00 0.00 84 1019.3
20260904114659 25 194 3.2 6.4 0.00 0.00 0.00 84 1019.4
20260904114600 25 194 3.2 6.4 0.00 0.00 0.00 84 1019.4
20260904114458 25 196 3.2 6.4 0.00 0.00 0.00 84 1019.3
20260904114348 25 199 3.2 6.4 0.00 0.00 0.00 85 1019.3
20260904114248 25 221 1.6 6.4 0.00 0.00 0.00 84 1019.4
20260904114148 25 223 1.6 6.4 0.00 0.00 0.00 84 1019.3
20260904114048 25 246 1.6 6.4 0.00 0.00 0.00 85 1019.3
20260904113948 25 277 1.6 6.4 0.00 0.00 0.00 85 1019.3
20260904113844 25 74 1.6 4.8 0.00 0.00 0.00 85 1019.3
20260904113743 25 77 1.6 4.8 0.00 0.00 0.00 85 1019.3
20260904113641 25 77 1.6 6.4 0.00 0.00 0.00 85 1019.3
20260904113541 25 77 1.6 8.0 0.00 0.00 0.00 85 1019.3
20260904113441 25 172 1.6 8.0 0.00 0.00 0.00 85 1019.3
20260904113338 25 178 1.6 8.0 0.00 0.00 0.00 85 1019.2
20260904113235 25 184 3.2 8.0 0.00 0.00 0.00 85 1019.3
20260904113135 24 180 3.2 8.0 0.00 0.00 0.00 85 1019.2
20260904113035 24 180 3.2 8.0 0.00 0.00 0.00 85 1019.2
20260904112935 24 169 3.2 8.0 0.00 0.00 0.00 85 1019.2
20260904112826 24 175 3.2 8.0 0.00 0.00 0.00 85 1019.2
20260904112725 24 180 3.2 8.0 0.00 0.00 0.00 85 1019.2
20260904112626 24 178 3.2 8.0 0.00 0.00 0.00 85 1019.2
20260904112525 24 169 3.2 6.4 0.00 0.00 0.00 85 1019.2
20260904112426 24 165 1.6 6.4 0.00 0.00 0.00 85 1019.1
20260904112320 24 169 1.6 6.4 0.00 0.00 0.00 85 1019.2
20260904112219 24 181 1.6 6.4 0.00 0.00 0.00 85 1019.2
20260904112118 24 175 1.6 6.4 0.00 0.00 0.00 85 1019.2
20260904112020 24 180 1.6 6.4 0.00 0.00 0.00 85 1019.2
20260904111919 24 180 1.6 6.4 0.00 0.00 0.00 85 1019.1
20260904111816 24 184 0.0 6.4 0.00 0.00 0.00 85 1019.1
20260904111715 24 184 0.0 6.4 0.00 0.00 0.00 85 1019.1
20260904111614 24 184 0.0 3.2 0.00 0.00 0.00 85 1019.1
20260904111514 24 184 0.0 3.2 0.00 0.00 0.00 85 1019.1
20260904111414 24 184 0.0 3.2 0.00 0.00 0.00 85 1019.0
20260904111304 24 184 0.0 3.2 0.00 0.00 0.00 85 1019.0
20260904111203 24 184 0.0 3.2 0.00 0.00 0.00 85 1019.1
20260904111104 24 184 0.0 1.6 0.00 0.00 0.00 85 1019.0
20260904111002 24 184 0.0 1.6 0.00 0.00 0.00 85 1019.1
20260904110904 24 184 0.0 1.6 0.00 0.00 0.00 85 1019.1
20260904110758 24 184 0.0 1.6 0.00 0.00 0.00 85 1019.0
20260904110657 24 185 0.0 0.0 0.00 0.00 0.00 85 1019.1
20260904110556 24 176 0.0 0.0 0.00 0.00 0.00 85 1019.1
20260904110457 24 171 0.0 0.0 0.00 0.00 0.00 85 1019.0
20260904110357 24 170 0.0 0.0 0.00 0.00 0.00 85 1019.0
20260904110256 24 169 0.0 0.0 0.00 0.00 0.00 85 1019.0
20260904110156 24 168 0.0 0.0 0.00 0.00 0.00 85 1019.0
20260904110055 24 168 0.0 0.0 0.00 0.00 0.00 85 1019.0
20260904105954 24 168 0.0 0.0 0.00 0.00 0.00 85 1019.0
20260904105852 24 168 0.0 0.0 0.00 0.00 0.00 85 1019.0
20260904105746 24 169 0.0 0.0 0.00 0.00 0.00 85 1019.1
20260904105645 24 169 0.0 0.0 0.00 0.00 0.00 85 1019.0
20260904105545 24 169 0.0 0.0 0.00 0.00 0.00 85 1018.9
20260904105444 24 169 0.0 0.0 0.00 0.00 0.00 85 1019.0
20260904105341 24 170 0.0 0.0 0.00 0.00 0.00 85 1018.9
20260904105237 24 171 0.0 0.0 0.00 0.00 0.00 85 1019.0
20260904105135 24 171 0.0 0.0 0.00 0.00 0.00 85 1018.9
20260904105034 24 171 0.0 0.0 0.00 0.00 0.00 85 1019.0
20260904104937 24 171 0.0 0.0 0.00 0.00 0.00 85 1018.9
20260904104836 24 189 0.0 0.0 0.00 0.00 0.00 85 1019.0
20260904104732 24 173 0.0 0.0 0.00 0.00 0.00 85 1018.9
20260904104628 24 174 0.0 0.0 0.00 0.00 0.00 85 1018.9
20260904104530 24 174 0.0 0.0 0.00 0.00 0.00 85 1018.9
20260904104429 24 179 0.0 0.0 0.00 0.00 0.00 85 1018.8
20260904104330 24 182 0.0 0.0 0.00 0.00 0.00 85 1018.8
20260904104224 24 183 0.0 0.0 0.00 0.00 0.00 85 1018.8
20260904104124 24 184 0.0 0.0 0.00 0.00 0.00 85 1018.9
20260904104024 24 184 0.0 0.0 0.00 0.00 0.00 85 1018.9
20260904103922 24 180 0.0 0.0 0.00 0.00 0.00 85 1018.9
20260904103820 24 176 0.0 0.0 0.00 0.00 0.00 85 1018.8
20260904103714 24 205 0.0 0.0 0.00 0.00 0.00 85 1018.8
20260904103616 24 211 0.0 0.0 0.00 0.00 0.00 85 1018.9
20260904103515 24 215 0.0 0.0 0.00 0.00 0.00 85 1018.9
20260904103415 24 166 0.0 0.0 0.00 0.00 0.00 85 1018.9
20260904103314 24 166 0.0 0.0 0.00 0.00 0.00 85 1018.9
20260904103214 24 166 0.0 0.0 0.00 0.00 0.00 85 1018.8
20260904103112 24 166 0.0 0.0 0.00 0.00 0.00 85 1018.9
20260904103011 24 167 0.0 0.0 0.00 0.00 0.00 86 1018.8
20260904102910 24 147 0.0 0.0 0.00 0.00 0.00 86 1018.8
20260904102808 24 146 0.0 0.0 0.00 0.00 0.00 86 1018.8
20260904102701 24 146 0.0 0.0 0.00 0.00 0.00 85 1018.9
20260904102602 24 150 0.0 0.0 0.00 0.00 0.00 85 1018.9
20260904102501 24 150 0.0 0.0 0.00 0.00 0.00 85 1018.8
20260904102400 24 150 0.0 0.0 0.00 0.00 0.00 85 1018.7
20260904102258 24 149 0.0 0.0 0.00 0.00 0.00 85 1018.8
20260904102158 24 151 0.0 0.0 0.00 0.00 0.00 85 1018.8
20260904102054 24 150 0.0 0.0 0.00 0.00 0.00 85 1018.8
20260904101956 24 142 0.0 0.0 0.00 0.00 0.00 85 1018.8
20260904101853 24 142 0.0 0.0 0.00 0.00 0.00 85 1018.9
20260904101752 24 141 0.0 0.0 0.00 0.00 0.00 85 1018.9
20260904101650 24 140 0.0 0.0 0.00 0.00 0.00 85 1018.8
20260904101550 24 140 0.0 0.0 0.00 0.00 0.00 85 1018.8
20260904101449 24 126 0.0 0.0 0.00 0.00 0.00 85 1018.8
20260904101347 24 126 0.0 0.0 0.00 0.00 0.00 85 1018.8
20260904101248 24 126 0.0 0.0 0.00 0.00 0.00 85 1018.8
20260904101147 24 126 0.0 0.0 0.00 0.00 0.00 85 1018.9
20260904101048 24 126 0.0 0.0 0.00 0.00 0.00 85 1018.8
20260904100945 24 127 0.0 0.0 0.00 0.00 0.00 85 1018.8
20260904100846 24 127 0.0 0.0 0.00 0.00 0.00 85 1018.8
20260904100745 24 127 0.0 0.0 0.00 0.00 0.00 85 1018.8
20260904100643 24 127 0.0 0.0 0.00 0.00 0.00 85 1018.8
20260904100542 24 127 0.0 0.0 0.00 0.00 0.00 85 1018.7
20260904100442 24 127 0.0 0.0 0.00 0.00 0.00 85 1018.8
20260904100340 24 127 0.0 0.0 0.00 0.00 0.00 85 1018.8
20260904100240 24 127 0.0 0.0 0.00 0.00 0.00 85 1018.7
20260904100137 24 127 0.0 0.0 0.00 0.00 0.00 85 1018.7
20260904100035 24 127 0.0 0.0 0.00 0.00 0.00 85 1018.7
20260904095936 24 127 0.0 0.0 0.00 0.00 0.00 85 1018.7
20260904095833 24 127 0.0 0.0 0.00 0.00 0.00 85 1018.8
20260904095733 24 130 0.0 0.0 0.00 0.00 0.00 85 1018.7
20260904095632 24 185 0.0 0.0 0.00 0.00 0.00 85 1018.8
20260904095528 24 146 0.0 0.0 0.00 0.00 0.00 85 1018.8
20260904095430 24 146 0.0 0.0 0.00 0.00 0.00 85 1018.8
20260904095326 24 146 0.0 0.0 0.00 0.00 0.00 85 1018.8
20260904095227 24 146 0.0 0.0 0.00 0.00 0.00 85 1018.8
20260904095124 24 146 0.0 0.0 0.00 0.00 0.00 85 1018.8
20260904095023 24 146 0.0 0.0 0.00 0.00 0.00 85 1018.8
20260904094923 24 146 0.0 0.0 0.00 0.00 0.00 85 1018.9
20260904094822 24 146 0.0 0.0 0.00 0.00 0.00 85 1018.8
20260904094722 24 147 0.0 0.0 0.00 0.00 0.00 85 1018.8
20260904094620 24 147 0.0 0.0 0.00 0.00 0.00 85 1018.8
20260904094516 24 147 0.0 0.0 0.00 0.00 0.00 85 1018.8
20260904094416 24 90 0.0 0.0 0.00 0.00 0.00 85 1018.8
20260904094316 24 90 0.0 0.0 0.00 0.00 0.00 85 1018.9
20260904094216 24 90 0.0 0.0 0.00 0.00 0.00 85 1018.8
20260904094115 24 201 0.0 0.0 0.00 0.00 0.00 85 1018.7
20260904094016 24 201 0.0 0.0 0.00 0.00 0.00 85 1018.7
20260904093910 24 201 0.0 0.0 0.00 0.00 0.00 85 1018.7
20260904093810 24 201 0.0 0.0 0.00 0.00 0.00 85 1018.7
20260904093709 24 201 0.0 0.0 0.00 0.00 0.00 84 1018.6
20260904093610 24 201 0.0 0.0 0.00 0.00 0.00 84 1018.6
20260904093510 24 201 0.0 0.0 0.00 0.00 0.00 84 1018.7
20260904093404 24 201 0.0 0.0 0.00 0.00 0.00 84 1018.6
20260904093302 24 201 0.0 0.0 0.00 0.00 0.00 84 1018.6
20260904093202 24 201 0.0 0.0 0.00 0.00 0.00 84 1018.6
20260904093104 24 201 0.0 0.0 0.00 0.00 0.00 84 1018.4
20260904093005 24 202 0.0 0.0 0.00 0.00 0.00 84 1018.6
20260904092859 24 202 0.0 0.0 0.00 0.00 0.00 84 1018.6
20260904092758 24 201 0.0 0.0 0.00 0.00 0.00 84 1018.4
20260904092656 24 201 0.0 0.0 0.00 0.00 0.00 84 1018.6
20260904092556 24 202 0.0 0.0 0.00 0.00 0.00 84 1018.6
20260904092453 24 202 0.0 0.0 0.00 0.00 0.00 84 1018.6
20260904092346 24 202 0.0 0.0 0.00 0.00 0.00 84 1018.6
20260904092248 24 202 0.0 0.0 0.00 0.00 0.00 84 1018.6
20260904092147 24 202 0.0 0.0 0.00 0.00 0.00 84 1018.6
20260904092046 24 202 0.0 0.0 0.00 0.00 0.00 84 1018.6
20260904091948 24 202 0.0 0.0 0.00 0.00 0.00 84 1018.4
20260904091848 24 202 0.0 0.0 0.00 0.00 0.00 84 1018.4
20260904091744 24 202 0.0 0.0 0.00 0.00 0.00 84 1018.3
20260904091646 24 202 0.0 0.0 0.00 0.00 0.00 84 1018.4
20260904091542 24 202 0.0 0.0 0.00 0.00 0.00 84 1018.4
20260904091442 25 202 0.0 0.0 0.00 0.00 0.00 84 1018.3
20260904091336 24 202 0.0 0.0 0.00 0.00 0.00 84 1018.3
20260904091235 24 202 0.0 0.0 0.00 0.00 0.00 84 1018.3
20260904091135 25 202 0.0 0.0 0.00 0.00 0.00 84 1018.3
20260904091033 25 202 0.0 0.0 0.00 0.00 0.00 84 1018.3
20260904090932 25 202 0.0 0.0 0.00 0.00 0.00 84 1018.3
20260904090832 25 202 0.0 0.0 0.00 0.00 0.00 84 1018.3
20260904090728 25 202 0.0 0.0 0.00 0.00 0.00 84 1018.3
20260904090630 25 202 0.0 0.0 0.00 0.00 0.00 84 1018.2
20260904090528 25 202 0.0 0.0 0.00 0.00 0.00 84 1018.3
20260904090425 25 202 0.0 0.0 0.00 0.00 0.00 83 1018.2
20260904090325 25 203 0.0 0.0 0.00 0.00 0.00 83 1018.3
20260904090223 25 203 0.0 0.0 0.00 0.00 0.00 83 1018.3
20260904090122 25 203 0.0 0.0 0.00 0.00 0.00 83 1018.2
20260904090022 25 203 0.0 0.0 0.00 0.00 0.00 83 1018.2
20260904085920 25 221 0.0 0.0 0.00 0.00 0.00 83 1018.2
20260904085814 25 221 0.0 0.0 0.00 0.00 0.00 83 1018.3
20260904085713 25 221 0.0 0.0 0.00 0.00 0.00 83 1018.3
20260904085612 25 221 0.0 0.0 0.00 0.00 0.00 83 1018.2
20260904085511 25 221 0.0 0.0 0.00 0.00 0.00 83 1018.2
20260904085410 25 221 0.0 0.0 0.00 0.00 0.00 83 1018.2
20260904085306 25 221 0.0 0.0 0.00 0.00 0.00 83 1018.1
20260904085205 25 221 0.0 0.0 0.00 0.00 0.00 83 1018.1
20260904085106 25 221 0.0 0.0 0.00 0.00 0.00 83 1018.1
20260904085005 25 221 0.0 0.0 0.00 0.00 0.00 83 1018.1
20260904084905 25 221 0.0 0.0 0.00 0.00 0.00 83 1018.1
20260904084805 25 221 0.0 0.0 0.00 0.00 0.00 83 1018.1
20260904084705 25 221 0.0 0.0 0.00 0.00 0.00 83 1018.1
20260904084604 25 221 0.0 0.0 0.00 0.00 0.00 83 1018.2
20260904084505 25 221 0.0 0.0 0.00 0.00 0.00 82 1018.2
20260904084405 25 221 0.0 0.0 0.00 0.00 0.00 82 1018.1
20260904084304 25 221 0.0 0.0 0.00 0.00 0.00 82 1018.1
20260904084204 25 221 0.0 0.0 0.00 0.00 0.00 82 1018.1
20260904084106 25 221 0.0 0.0 0.00 0.00 0.00 82 1018.1
20260904084006 25 222 0.0 0.0 0.00 0.00 0.00 82 1018.2
20260904083904 25 222 0.0 0.0 0.00 0.00 0.00 82 1018.2
20260904083806 25 222 0.0 0.0 0.00 0.00 0.00 82 1018.2
20260904083706 25 223 0.0 0.0 0.00 0.00 0.00 82 1018.1
20260904083601 25 220 0.0 0.0 0.00 0.00 0.00 82 1018.1
20260904083501 25 220 0.0 0.0 0.00 0.00 0.00 82 1018.1
20260904083402 25 220 0.0 0.0 0.00 0.00 0.00 82 1018.0
20260904083301 25 220 0.0 0.0 0.00 0.00 0.00 82 1018.0
20260904083159 25 220 0.0 0.0 0.00 0.00 0.00 82 1018.1
20260904083059 25 220 0.0 0.0 0.00 0.00 0.00 82 1018.0
20260904082957 25 220 0.0 0.0 0.00 0.00 0.00 81 1018.0
20260904082858 25 220 0.0 0.0 0.00 0.00 0.00 81 1018.1
20260904082754 25 220 0.0 0.0 0.00 0.00 0.00 81 1018.0
20260904082654 25 220 0.0 0.0 0.00 0.00 0.00 81 1018.0
20260904082550 25 220 0.0 0.0 0.00 0.00 0.00 81 1018.1
20260904082447 25 220 0.0 0.0 0.00 0.00 0.00 81 1018.0
20260904082346 25 220 0.0 0.0 0.00 0.00 0.00 81 1018.0
20260904082246 25 220 0.0 0.0 0.00 0.00 0.00 81 1018.1
20260904082143 25 220 0.0 0.0 0.00 0.00 0.00 81 1018.0
20260904082040 25 220 0.0 0.0 0.00 0.00 0.00 81 1018.0
20260904081938 25 220 0.0 0.0 0.00 0.00 0.00 81 1018.1
20260904081837 25 220 0.0 0.0 0.00 0.00 0.00 81 1018.0
20260904081736 25 220 0.0 0.0 0.00 0.00 0.00 81 1018.1
20260904081638 25 220 0.0 0.0 0.00 0.00 0.00 81 1018.0
20260904081538 25 220 0.0 0.0 0.00 0.00 0.00 81 1018.0
20260904081435 25 220 0.0 0.0 0.00 0.00 0.00 80 1018.1
20260904081335 25 220 0.0 0.0 0.00 0.00 0.00 80 1018.1
20260904081232 25 220 0.0 0.0 0.00 0.00 0.00 80 1018.1
20260904081132 25 220 0.0 0.0 0.00 0.00 0.00 80 1018.1
20260904081033 25 220 0.0 0.0 0.00 0.00 0.00 80 1018.2
20260904080931 25 220 0.0 0.0 0.00 0.00 0.00 80 1018.1
20260904080831 25 220 0.0 0.0 0.00 0.00 0.00 80 1018.2
20260904080730 25 220 0.0 0.0 0.00 0.00 0.00 80 1018.2
20260904080626 25 220 0.0 0.0 0.00 0.00 0.00 80 1018.2
20260904080528 25 220 0.0 0.0 0.00 0.00 0.00 80 1018.2
20260904080426 25 220 0.0 0.0 0.00 0.00 0.00 80 1018.2
20260904080326 25 220 0.0 0.0 0.00 0.00 0.00 80 1018.3
20260904080224 25 220 0.0 0.0 0.00 0.00 0.00 80 1018.2
20260904080125 25 220 0.0 0.0 0.00 0.00 0.00 80 1018.2
20260904080022 25 220 0.0 0.0 0.00 0.00 0.00 80 1018.3
20260904075924 25 220 0.0 0.0 0.00 0.00 0.00 80 1018.2
20260904075820 25 220 0.0 0.0 0.00 0.00 0.00 80 1018.2
20260904075716 25 220 0.0 0.0 0.00 0.00 0.00 80 1018.3
20260904075618 25 220 0.0 0.0 0.00 0.00 0.00 80 1018.2
20260904075518 25 220 0.0 0.0 0.00 0.00 0.00 80 1018.2
20260904075417 25 220 0.0 0.0 0.00 0.00 0.00 80 1018.2
20260904075316 25 220 0.0 0.0 0.00 0.00 0.00 80 1018.2
20260904075218 25 220 0.0 0.0 0.00 0.00 0.00 80 1018.3
20260904075117 25 220 0.0 0.0 0.00 0.00 0.00 80 1018.3
20260904075017 25 220 0.0 0.0 0.00 0.00 0.00 80 1018.3
20260904074916 25 220 0.0 0.0 0.00 0.00 0.00 80 1018.2
20260904074817 25 220 0.0 0.0 0.00 0.00 0.00 80 1018.2
20260904074717 25 220 0.0 0.0 0.00 0.00 0.00 80 1018.2
20260904074617 25 220 0.0 0.0 0.00 0.00 0.00 80 1018.2
20260904074517 25 220 0.0 0.0 0.00 0.00 0.00 80 1018.2
20260904074418 25 220 0.0 0.0 0.00 0.00 0.00 80 1018.2
20260904074316 25 220 0.0 0.0 0.00 0.00 0.00 80 1018.2
20260904074217 25 220 0.0 0.0 0.00 0.00 0.00 80 1018.2
20260904074116 25 220 0.0 0.0 0.00 0.00 0.00 80 1018.2
20260904074017 25 220 0.0 0.0 0.00 0.00 0.00 80 1018.2
20260904073917 25 220 0.0 0.0 0.00 0.00 0.00 79 1018.2
20260904073816 25 222 0.0 0.0 0.00 0.00 0.00 79 1018.2
20260904073717 25 222 0.0 0.0 0.00 0.00 0.00 79 1018.2
20260904073617 25 222 0.0 0.0 0.00 0.00 0.00 79 1018.2
20260904073518 25 222 0.0 0.0 0.00 0.00 0.00 79 1018.2
20260904073417 25 222 0.0 0.0 0.00 0.00 0.00 79 1018.2
20260904073318 25 222 0.0 0.0 0.00 0.00 0.00 79 1018.3
20260904073214 25 222 0.0 0.0 0.00 0.00 0.00 79 1018.3
20260904073112 25 222 0.0 0.0 0.00 0.00 0.00 79 1018.3
20260904073012 25 222 0.0 0.0 0.00 0.00 0.00 79 1018.3
20260904072912 25 222 0.0 0.0 0.00 0.00 0.00 79 1018.4
20260904072814 25 222 0.0 0.0 0.00 0.00 0.00 79 1018.3
20260904072712 25 222 0.0 0.0 0.00 0.00 0.00 79 1018.4
20260904072613 25 222 0.0 0.0 0.00 0.00 0.00 79 1018.3
20260904072515 25 222 0.0 0.0 0.00 0.00 0.00 79 1018.4
20260904072414 25 222 0.0 0.0 0.00 0.00 0.00 79 1018.4
20260904072312 25 222 0.0 0.0 0.00 0.00 0.00 79 1018.4
20260904072212 25 222 0.0 0.0 0.00 0.00 0.00 79 1018.4
20260904072114 25 222 0.0 0.0 0.00 0.00 0.00 79 1018.4
20260904072012 25 222 0.0 0.0 0.00 0.00 0.00 79 1018.4
20260904071913 25 222 0.0 0.0 0.00 0.00 0.00 79 1018.4
20260904071813 25 222 0.0 0.0 0.00 0.00 0.00 79 1018.4
20260904071714 25 222 0.0 0.0 0.00 0.00 0.00 79 1018.4
20260904071612 25 222 0.0 0.0 0.00 0.00 0.00 79 1018.4
20260904071514 25 222 0.0 0.0 0.00 0.00 0.00 79 1018.4
20260904071412 25 222 0.0 0.0 0.00 0.00 0.00 78 1018.4
20260904071314 25 222 0.0 0.0 0.00 0.00 0.00 78 1018.6
20260904071213 25 222 0.0 0.0 0.00 0.00 0.00 78 1018.4
20260904071113 25 222 0.0 0.0 0.00 0.00 0.00 78 1018.4
20260904071013 25 222 0.0 0.0 0.00 0.00 0.00 78 1018.4
20260904070913 25 222 0.0 0.0 0.00 0.00 0.00 78 1018.6
20260904070812 25 222 0.0 0.0 0.00 0.00 0.00 78 1018.7
20260904070713 25 222 0.0 0.0 0.00 0.00 0.00 78 1018.7
20260904070613 25 222 0.0 0.0 0.00 0.00 0.00 78 1018.6
20260904070513 25 222 0.0 0.0 0.00 0.00 0.00 78 1018.6
20260904070413 25 222 0.0 0.0 0.00 0.00 0.00 78 1018.7
20260904070312 25 222 0.0 0.0 0.00 0.00 0.00 78 1018.7
20260904070212 25 222 0.0 0.0 0.00 0.00 0.00 78 1018.7
20260904070114 25 222 0.0 0.0 0.00 0.00 0.00 78 1018.7
20260904070013 25 222 0.0 0.0 0.00 0.00 0.00 78 1018.7
20260904065914 25 222 0.0 0.0 0.00 0.00 0.00 78 1018.7
20260904065812 25 222 0.0 0.0 0.00 0.00 0.00 78 1018.7
20260904065714 25 222 0.0 0.0 0.00 0.00 0.00 78 1018.7
20260904065613 25 222 0.0 0.0 0.00 0.00 0.00 78 1018.8
20260904065512 25 222 0.0 0.0 0.00 0.00 0.00 79 1018.8
20260904065413 25 222 0.0 0.0 0.00 0.00 0.00 79 1018.8
20260904065314 25 222 0.0 0.0 0.00 0.00 0.00 79 1018.8
20260904065205 25 222 0.0 0.0 0.00 0.00 0.00 79 1018.9
20260904065105 25 222 0.0 0.0 0.00 0.00 0.00 79 1018.9
20260904065005 25 222 0.0 0.0 0.00 0.00 0.00 79 1018.9
20260904064904 25 222 0.0 0.0 0.00 0.00 0.00 79 1018.9
20260904064804 25 222 0.0 0.0 0.00 0.00 0.00 79 1019.0
20260904064706 25 222 0.0 0.0 0.00 0.00 0.00 79 1018.9
20260904064606 25 222 0.0 0.0 0.00 0.00 0.00 79 1019.0
20260904064506 25 222 0.0 0.0 0.00 0.00 0.00 79 1019.0
20260904064404 25 222 0.0 0.0 0.00 0.00 0.00 79 1019.0
20260904064306 25 222 0.0 0.0 0.00 0.00 0.00 79 1019.1
20260904064204 25 222 0.0 0.0 0.00 0.00 0.00 79 1019.1
20260904064105 25 222 0.0 0.0 0.00 0.00 0.00 79 1019.0
20260904064006 25 222 0.0 0.0 0.00 0.00 0.00 79 1019.1
20260904063904 25 222 0.0 0.0 0.00 0.00 0.00 79 1019.1
20260904063805 25 222 0.0 0.0 0.00 0.00 0.00 79 1019.2
20260904063704 25 222 0.0 0.0 0.00 0.00 0.00 79 1019.1
20260904063606 25 222 0.0 0.0 0.00 0.00 0.00 79 1019.1
20260904063505 25 222 0.0 0.0 0.00 0.00 0.00 79 1019.1
20260904063404 25 222 0.0 0.0 0.00 0.00 0.00 79 1019.2
20260904063306 25 222 0.0 0.0 0.00 0.00 0.00 79 1019.1
20260904063204 25 222 0.0 0.0 0.00 0.00 0.00 79 1019.2
20260904063105 25 222 0.0 0.0 0.00 0.00 0.00 79 1019.2
20260904063004 25 222 0.0 0.0 0.00 0.00 0.00 79 1019.2
20260904062905 25 222 0.0 0.0 0.00 0.00 0.00 79 1019.3
20260904062804 25 222 0.0 0.0 0.00 0.00 0.00 79 1019.2
20260904062706 25 222 0.0 0.0 0.00 0.00 0.00 79 1019.4
20260904062606 25 222 0.0 0.0 0.00 0.00 0.00 79 1019.3
20260904062505 25 222 0.0 0.0 0.00 0.00 0.00 79 1019.3
20260904062405 26 222 0.0 0.0 0.00 0.00 0.00 79 1019.3
20260904062306 25 222 0.0 0.0 0.00 0.00 0.00 79 1019.4
20260904062205 25 222 0.0 0.0 0.00 0.00 0.00 78 1019.3
20260904062105 25 222 0.0 0.0 0.00 0.00 0.00 79 1019.4
20260904062006 25 222 0.0 0.0 0.00 0.00 0.00 78 1019.4
20260904061900 25 222 0.0 0.0 0.00 0.00 0.00 78 1019.4
20260904061800 25 222 0.0 0.0 0.00 0.00 0.00 78 1019.4
20260904061702 25 222 0.0 0.0 0.00 0.00 0.00 78 1019.5
20260904061600 25 222 0.0 0.0 0.00 0.00 0.00 78 1019.6
20260904061502 25 222 0.0 0.0 0.00 0.00 0.00 78 1019.6
20260904061400 25 222 0.0 0.0 0.00 0.00 0.00 78 1019.6
20260904061300 25 222 0.0 0.0 0.00 0.00 0.00 78 1019.5
20260904061202 25 222 0.0 0.0 0.00 0.00 0.00 78 1019.5
20260904061101 25 222 0.0 0.0 0.00 0.00 0.00 78 1019.5
20260904061001 25 222 0.0 0.0 0.00 0.00 0.00 78 1019.5
20260904060900 25 222 0.0 0.0 0.00 0.00 0.00 78 1019.4
20260904060800 25 222 0.0 0.0 0.00 0.00 0.00 78 1019.5
20260904060700 25 222 0.0 0.0 0.00 0.00 0.00 78 1019.6
20260904060600 25 222 0.0 0.0 0.00 0.00 0.00 78 1019.4
20260904060501 25 222 0.0 0.0 0.00 0.00 0.00 78 1019.4
20260904060401 25 222 0.0 0.0 0.00 0.00 0.00 78 1019.5
20260904060300 25 222 0.0 0.0 0.00 0.00 0.00 78 1019.5
20260904060200 25 222 0.0 0.0 0.00 0.00 0.00 78 1019.5
20260904060100 25 222 0.0 0.0 0.00 0.00 0.00 78 1019.5
20260904060002 25 222 0.0 0.0 0.00 0.00 0.00 78 1019.5
20260904055900 25 222 0.0 0.0 0.00 0.00 0.00 78 1019.5
20260904055800 25 222 0.0 0.0 0.00 0.00 0.00 78 1019.5
20260904055701 25 222 0.0 0.0 0.00 0.00 0.00 78 1019.5
20260904055602 25 222 0.0 0.0 0.00 0.00 0.00 78 1019.6
20260904055502 25 222 0.0 0.0 0.00 0.00 0.00 78 1019.5
20260904055402 26 222 0.0 0.0 0.00 0.00 0.00 78 1019.6
20260904055300 25 222 0.0 0.0 0.00 0.00 0.00 78 1019.5
20260904055201 25 222 0.0 0.0 0.00 0.00 0.00 78 1019.6
20260904055102 26 222 0.0 0.0 0.00 0.00 0.00 78 1019.4
20260904055002 26 222 0.0 0.0 0.00 0.00 0.00 79 1019.5
20260904054900 26 222 0.0 0.0 0.00 0.00 0.00 79 1019.4
20260904054801 26 222 0.0 0.0 0.00 0.00 0.00 78 1019.6
20260904054702 26 222 0.0 0.0 0.00 0.00 0.00 78 1019.6
20260904054556 26 222 0.0 0.0 0.00 0.00 0.00 78 1019.5
20260904054457 26 222 0.0 0.0 0.00 0.00 0.00 78 1019.6
20260904054356 26 222 0.0 0.0 0.00 0.00 0.00 78 1019.5
20260904054256 26 222 0.0 0.0 0.00 0.00 0.00 78 1019.6
20260904054157 26 222 0.0 0.0 0.00 0.00 0.00 78 1019.6
20260904054054 26 222 0.0 0.0 0.00 0.00 0.00 78 1019.5
20260904053956 26 222 0.0 0.0 0.00 0.00 0.00 78 1019.6
20260904053854 26 222 0.0 0.0 0.00 0.00 0.00 78 1019.5
20260904053753 26 222 0.0 0.0 0.00 0.00 0.00 78 1019.6
20260904053654 26 222 0.0 0.0 0.00 0.00 0.00 78 1019.6
20260904053550 26 222 0.0 0.0 0.00 0.00 0.00 78 1019.5
20260904053448 26 222 0.0 0.0 0.00 0.00 0.00 78 1019.6
20260904053348 26 222 0.0 0.0 0.00 0.00 0.00 78 1019.6
20260904053247 26 222 0.0 0.0 0.00 0.00 0.00 78 1019.7
20260904053147 26 222 0.0 0.0 0.00 0.00 0.00 78 1019.7
20260904053046 26 222 0.0 0.0 0.00 0.00 0.00 78 1019.7
20260904052944 26 222 0.0 0.0 0.00 0.00 0.00 78 1019.6
20260904052842 26 222 0.0 0.0 0.00 0.00 0.00 78 1019.7
20260904052742 26 222 0.0 0.0 0.00 0.00 0.00 78 1019.7
20260904052641 26 222 0.0 0.0 0.00 0.00 0.00 78 1019.8
20260904052540 26 222 0.0 0.0 0.00 0.00 0.00 78 1019.7
20260904052438 26 222 0.0 0.0 0.00 0.00 0.00 78 1019.7
20260904052337 26 222 0.0 0.0 0.00 0.00 0.00 78 1019.7
20260904052234 26 222 0.0 0.0 0.00 0.00 0.00 78 1019.8
20260904052135 26 222 0.0 0.0 0.00 0.00 0.00 78 1019.7
20260904052033 26 222 0.0 0.0 0.00 0.00 0.00 77 1019.7
20260904051930 26 222 0.0 0.0 0.00 0.00 0.00 77 1019.8
20260904051830 26 222 0.0 0.0 0.00 0.00 0.00 78 1019.8
20260904051729 26 222 0.0 0.0 0.00 0.00 0.00 78 1019.8
20260904051629 26 222 0.0 0.0 0.00 0.00 0.00 78 1019.8
20260904051529 26 222 0.0 0.0 0.00 0.00 0.00 78 1019.8
20260904051429 26 222 0.0 0.0 0.00 0.00 0.00 77 1019.8
20260904051324 26 222 0.0 0.0 0.00 0.00 0.00 77 1019.8
20260904051222 26 221 0.0 0.0 0.00 0.00 0.00 77 1019.8
20260904051122 26 221 0.0 0.0 0.00 0.00 0.00 77 1019.8
20260904051022 26 222 0.0 0.0 0.00 0.00 0.00 77 1019.8
20260904050923 26 222 0.0 0.0 0.00 0.00 0.00 77 1019.9
20260904050822 26 222 0.0 0.0 0.00 0.00 0.00 77 1019.9
20260904050722 26 221 0.0 0.0 0.00 0.00 0.00 77 1019.9
20260904050624 26 221 0.0 0.0 0.00 0.00 0.00 77 1019.9
20260904050522 26 222 0.0 0.0 0.00 0.00 0.00 77 1019.9
20260904050423 26 222 0.0 0.0 0.00 0.00 0.00 77 1019.9
20260904050323 26 222 0.0 0.0 0.00 0.00 0.00 77 1019.9
20260904050222 26 221 0.0 0.0 0.00 0.00 0.00 77 1019.9
20260904050123 26 221 0.0 0.0 0.00 0.00 0.00 77 1019.9
20260904050021 26 221 0.0 0.0 0.00 0.00 0.00 77 1019.9
20260904045922 26 221 0.0 0.0 0.00 0.00 0.00 77 1019.9
20260904045818 26 221 0.0 0.0 0.00 0.00 0.00 77 1019.9
20260904045717 26 221 0.0 0.0 0.00 0.00 0.00 77 1020.0
20260904045617 26 221 0.0 0.0 0.00 0.00 0.00 77 1020.0
20260904045514 26 221 0.0 0.0 0.00 0.00 0.00 77 1019.9
20260904045415 26 221 0.0 0.0 0.00 0.00 0.00 77 1019.9
20260904045313 26 221 0.0 0.0 0.00 0.00 0.00 77 1019.9
20260904045211 26 221 0.0 0.0 0.00 0.00 0.00 77 1019.9
20260904045110 26 221 0.0 0.0 0.00 0.00 0.00 77 1019.9
20260904045010 26 221 0.0 0.0 0.00 0.00 0.00 77 1020.0
20260904044909 26 221 0.0 0.0 0.00 0.00 0.00 77 1020.0
20260904044808 26 221 0.0 0.0 0.00 0.00 0.00 77 1020.0
20260904044708 26 221 0.0 0.0 0.00 0.00 0.00 77 1020.0
20260904044602 26 221 0.0 0.0 0.00 0.00 0.00 77 1019.9
20260904044503 26 221 0.0 0.0 0.00 0.00 0.00 77 1020.0
20260904044402 26 221 0.0 0.0 0.00 0.00 0.00 77 1020.0
20260904044304 26 221 0.0 0.0 0.00 0.00 0.00 77 1019.9
20260904044202 26 221 0.0 0.0 0.00 0.00 0.00 77 1019.9
20260904044058 26 221 0.0 0.0 0.00 0.00 0.00 77 1019.9
20260904043957 26 221 0.0 0.0 0.00 0.00 0.00 77 1019.9
20260904043856 26 221 0.0 0.0 0.00 0.00 0.00 77 1020.0
20260904043756 26 221 0.0 0.0 0.00 0.00 0.00 77 1019.9
20260904043657 26 221 0.0 0.0 0.00 0.00 0.00 77 1019.9
20260904043554 26 221 0.0 0.0 0.00 0.00 0.00 77 1019.9
20260904043451 26 221 0.0 0.0 0.00 0.00 0.00 77 1020.0
20260904043350 26 221 0.0 0.0 0.00 0.00 0.00 77 1020.0
20260904043249 26 221 0.0 0.0 0.00 0.00 0.00 77 1020.0
20260904043146 26 221 0.0 0.0 0.00 0.00 0.00 77 1020.0
20260904043040 26 221 0.0 0.0 0.00 0.00 0.00 77 1020.0
20260904042941 26 221 0.0 0.0 0.00 0.00 0.00 77 1020.0
20260904042841 26 221 0.0 0.0 0.00 0.00 0.00 77 1020.0
20260904042740 26 221 0.0 0.0 0.00 0.00 0.00 77 1019.9
20260904042641 26 221 0.0 0.0 0.00 0.00 0.00 77 1020.0
20260904042537 26 221 0.0 0.0 0.00 0.00 0.00 77 1019.9
20260904042435 26 221 0.0 0.0 0.00 0.00 0.00 77 1020.0
20260904042334 26 221 0.0 0.0 0.00 0.00 0.00 77 1020.0
20260904042233 26 221 0.0 0.0 0.00 0.00 0.00 77 1020.0
20260904042134 26 221 0.0 0.0 0.00 0.00 0.00 77 1019.9
20260904042030 26 221 0.0 0.0 0.00 0.00 0.00 77 1019.9
20260904041930 26 221 0.0 0.0 0.00 0.00 0.00 77 1019.9
20260904041828 26 221 0.0 0.0 0.00 0.00 0.00 77 1020.0
20260904041727 26 221 0.0 0.0 0.00 0.00 0.00 77 1019.9
20260904041625 26 221 0.0 0.0 0.00 0.00 0.00 77 1020.0
20260904041525 26 221 0.0 0.0 0.00 0.00 0.00 77 1019.9
20260904041422 26 221 0.0 0.0 0.00 0.00 0.00 77 1019.9
20260904041324 26 221 0.0 0.0 0.00 0.00 0.00 77 1019.9
20260904041221 26 221 0.0 0.0 0.00 0.00 0.00 77 1020.0
20260904041118 26 221 0.0 0.0 0.00 0.00 0.00 77 1019.9
20260904041019 26 221 0.0 0.0 0.00 0.00 0.00 77 1019.9
20260904040916 26 221 0.0 0.0 0.00 0.00 0.00 77 1019.9
20260904040816 26 221 0.0 0.0 0.00 0.00 0.00 77 1019.9
20260904040715 26 221 0.0 0.0 0.00 0.00 0.00 77 1019.9
20260904040614 26 221 0.0 0.0 0.00 0.00 0.00 77 1019.9
20260904040515 26 221 0.0 0.0 0.00 0.00 0.00 77 1019.9
20260904040414 26 221 0.0 0.0 0.00 0.00 0.00 77 1020.0
20260904040315 26 221 0.0 0.0 0.00 0.00 0.00 77 1020.0
20260904040211 26 221 0.0 0.0 0.00 0.00 0.00 77 1019.8
20260904040109 26 221 0.0 0.0 0.00 0.00 0.00 77 1019.9
20260904040010 26 221 0.0 0.0 0.00 0.00 0.00 77 1019.9
20260904035909 26 221 0.0 0.0 0.00 0.00 0.00 77 1020.0
20260904035809 26 221 0.0 0.0 0.00 0.00 0.00 77 1020.0
20260904035709 26 221 0.0 0.0 0.00 0.00 0.00 77 1020.0
20260904035608 26 221 0.0 0.0 0.00 0.00 0.00 77 1020.2
20260904035510 26 221 0.0 0.0 0.00 0.00 0.00 77 1020.0
20260904035408 26 221 0.0 0.0 0.00 0.00 0.00 77 1020.0
20260904035308 26 221 0.0 0.0 0.00 0.00 0.00 77 1020.0
20260904035210 26 221 0.0 0.0 0.00 0.00 0.00 77 1020.2
20260904035108 26 221 0.0 0.0 0.00 0.00 0.00 77 1020.0
20260904035008 26 221 0.0 0.0 0.00 0.00 0.00 77 1019.9
20260904034910 26 221 0.0 0.0 0.00 0.00 0.00 77 1020.0
20260904034808 26 221 0.0 0.0 0.00 0.00 0.00 77 1020.0
20260904034710 26 221 0.0 0.0 0.00 0.00 0.00 77 1020.0
20260904034602 26 221 0.0 0.0 0.00 0.00 0.00 77 1020.0
20260904034501 26 221 0.0 0.0 0.00 0.00 0.00 77 1020.0
20260904034400 26 221 0.0 0.0 0.00 0.00 0.00 77 1020.2
20260904034301 26 221 0.0 0.0 0.00 0.00 0.00 77 1020.0
20260904034202 26 221 0.0 0.0 0.00 0.00 0.00 77 1020.2
20260904034100 26 221 0.0 0.0 0.00 0.00 0.00 77 1020.0
20260904034001 26 221 0.0 0.0 0.00 0.00 0.00 77 1020.2
20260904033900 26 221 0.0 0.0 0.00 0.00 0.00 77 1020.2
20260904033801 26 221 0.0 0.0 0.00 0.00 0.00 77 1020.2
20260904033700 26 221 0.0 0.0 0.00 0.00 0.00 77 1020.2
20260904033600 26 221 0.0 0.0 0.00 0.00 0.00 77 1020.2
20260904033500 26 221 0.0 0.0 0.00 0.00 0.00 77 1020.2
20260904033400 26 221 0.0 0.0 0.00 0.00 0.00 77 1020.2
20260904033301 26 221 0.0 0.0 0.00 0.00 0.00 77 1020.3
20260904033200 26 221 0.0 0.0 0.00 0.00 0.00 77 1020.3
20260904033101 26 221 0.0 0.0 0.00 0.00 0.00 77 1020.3
20260904033000 26 221 0.0 0.0 0.00 0.00 0.00 77 1020.2
20260904032900 26 221 0.0 0.0 0.00 0.00 0.00 77 1020.2
20260904032800 26 221 0.0 0.0 0.00 0.00 0.00 77 1020.2
20260904032702 26 221 0.0 0.0 0.00 0.00 0.00 76 1020.2
20260904032600 26 221 0.0 0.0 0.00 0.00 0.00 76 1020.2
20260904032501 26 221 0.0 0.0 0.00 0.00 0.00 76 1020.2
20260904032400 26 221 0.0 0.0 0.00 0.00 0.00 76 1020.3
20260904032300 26 221 0.0 0.0 0.00 0.00 0.00 76 1020.2
20260904032202 26 221 0.0 0.0 0.00 0.00 0.00 76 1020.2
20260904032102 26 221 0.0 0.0 0.00 0.00 0.00 76 1020.2
20260904032001 26 221 0.0 0.0 0.00 0.00 0.00 76 1020.2
20260904031900 26 221 0.0 0.0 0.00 0.00 0.00 76 1020.2
20260904031801 26 221 0.0 0.0 0.00 0.00 0.00 76 1020.3
20260904031701 26 221 0.0 0.0 0.00 0.00 0.00 76 1020.3
20260904031602 26 221 0.0 0.0 0.00 0.00 0.00 76 1020.3
20260904031500 26 221 0.0 0.0 0.00 0.00 0.00 76 1020.4
20260904031401 26 221 0.0 0.0 0.00 0.00 0.00 76 1020.3
20260904031256 26 221 0.0 0.0 0.00 0.00 0.00 76 1020.3
20260904031158 26 221 0.0 0.0 0.00 0.00 0.00 76 1020.3
20260904031057 26 221 0.0 0.0 0.00 0.00 0.00 76 1020.3
20260904030958 26 221 0.0 0.0 0.00 0.00 0.00 76 1020.2
20260904030857 26 221 0.0 0.0 0.00 0.00 0.00 76 1020.2
20260904030758 26 221 0.0 0.0 0.00 0.00 0.00 76 1020.2
20260904030657 26 221 0.0 0.0 0.00 0.00 0.00 75 1020.3
20260904030556 26 221 0.0 0.0 0.00 0.00 0.00 75 1020.4
20260904030458 26 221 0.0 0.0 0.00 0.00 0.00 75 1020.4
20260904030356 26 221 0.0 0.0 0.00 0.00 0.00 75 1020.3
20260904030257 26 221 0.0 0.0 0.00 0.00 0.00 75 1020.3
20260904030156 26 220 0.0 0.0 0.00 0.00 0.00 75 1020.2
20260904030056 27 220 0.0 0.0 0.00 0.00 0.00 75 1020.3
20260904025958 26 220 0.0 0.0 0.00 0.00 0.00 75 1020.3
20260904025856 27 220 0.0 0.0 0.00 0.00 0.00 75 1020.4
20260904025756 27 220 0.0 0.0 0.00 0.00 0.00 75 1020.3
20260904025658 27 220 0.0 0.0 0.00 0.00 0.00 74 1020.4
20260904025557 27 220 0.0 0.0 0.00 0.00 0.00 75 1020.3
20260904025457 27 219 0.0 0.0 0.00 0.00 0.00 75 1020.3
20260904025357 27 219 0.0 0.0 0.00 0.00 0.00 75 1020.4
20260904025256 27 219 0.0 0.0 0.00 0.00 0.00 74 1020.4
20260904025152 27 219 0.0 0.0 0.00 0.00 0.00 74 1020.4
20260904025049 27 219 0.0 0.0 0.00 0.00 0.00 74 1020.4
20260904024948 27 219 0.0 0.0 0.00 0.00 0.00 74 1020.4
20260904024848 27 219 0.0 0.0 0.00 0.00 0.00 74 1020.4
20260904024746 27 219 0.0 0.0 0.00 0.00 0.00 74 1020.4
20260904024644 27 219 0.0 0.0 0.00 0.00 0.00 74 1020.3
20260904024543 27 218 0.0 0.0 0.00 0.00 0.00 74 1020.3
20260904024441 27 218 0.0 0.0 0.00 0.00 0.00 74 1020.4
20260904024330 27 218 0.0 0.0 0.00 0.00 0.00 74 1020.5
20260904024231 27 218 0.0 0.0 0.00 0.00 0.00 74 1020.4
20260904024130 27 218 0.0 0.0 0.00 0.00 0.00 73 1020.4
20260904024030 27 219 0.0 0.0 0.00 0.00 0.00 73 1020.4
20260904023930 27 219 0.0 0.0 0.00 0.00 0.00 73 1020.5
20260904023832 27 218 0.0 0.0 0.00 0.00 0.00 73 1020.5
20260904023729 27 218 0.0 0.0 0.00 0.00 0.00 73 1020.5
20260904023629 27 218 0.0 0.0 0.00 0.00 0.00 73 1020.5
20260904023526 27 218 0.0 0.0 0.00 0.00 0.00 73 1020.5
20260904023425 27 218 0.0 0.0 0.00 0.00 0.00 73 1020.5
20260904023324 27 218 0.0 0.0 0.00 0.00 0.00 73 1020.5
20260904023224 27 218 0.0 0.0 0.00 0.00 0.00 73 1020.4
20260904023122 27 217 0.0 0.0 0.00 0.00 0.00 73 1020.4
20260904023021 27 217 0.0 0.0 0.00 0.00 0.00 73 1020.4
20260904022919 27 217 0.0 0.0 0.00 0.00 0.00 73 1020.5
20260904022811 27 217 0.0 0.0 0.00 0.00 0.00 72 1020.4
20260904022709 27 217 0.0 0.0 0.00 0.00 0.00 73 1020.4
20260904022608 27 217 0.0 0.0 0.00 0.00 0.00 72 1020.5
20260904022508 27 217 0.0 0.0 0.00 0.00 0.00 72 1020.4
20260904022408 27 217 0.0 0.0 0.00 0.00 0.00 72 1020.5
20260904022306 27 216 0.0 0.0 0.00 0.00 0.00 72 1020.4
20260904022202 27 215 0.0 0.0 0.00 0.00 0.00 72 1020.4
20260904022102 27 214 0.0 0.0 0.00 0.00 0.00 72 1020.4
20260904022002 27 213 0.0 0.0 0.00 0.00 0.00 72 1020.5
20260904021903 27 213 0.0 0.0 0.00 0.00 0.00 72 1020.4
20260904021802 27 213 0.0 0.0 0.00 0.00 0.00 72 1020.4
20260904021701 27 213 0.0 0.0 0.00 0.00 0.00 72 1020.5
20260904021558 27 213 0.0 0.0 0.00 0.00 0.00 72 1020.5
20260904021500 27 213 0.0 0.0 0.00 0.00 0.00 72 1020.5
20260904021357 27 213 0.0 0.0 0.00 0.00 0.00 72 1020.5
20260904021249 27 213 0.0 0.0 0.00 0.00 0.00 72 1020.5
20260904021147 27 215 0.0 0.0 0.00 0.00 0.00 71 1020.5
20260904021046 27 215 0.0 0.0 0.00 0.00 0.00 71 1020.5
20260904020946 27 214 0.0 0.0 0.00 0.00 0.00 71 1020.4
20260904020846 27 214 0.0 0.0 0.00 0.00 0.00 71 1020.4
20260904020748 27 215 0.0 0.0 0.00 0.00 0.00 71 1020.4
20260904020644 27 215 0.0 0.0 0.00 0.00 0.00 71 1020.4
20260904020546 27 215 0.0 0.0 0.00 0.00 0.00 71 1020.4
20260904020441 27 215 0.0 0.0 0.00 0.00 0.00 71 1020.4
20260904020341 27 215 0.0 0.0 0.00 0.00 0.00 70 1020.5
20260904020240 27 215 0.0 0.0 0.00 0.00 0.00 70 1020.4
20260904020139 27 215 0.0 0.0 0.00 0.00 0.00 70 1020.4
20260904020038 27 215 0.0 0.0 0.00 0.00 0.00 70 1020.4
20260904015937 27 215 0.0 0.0 0.00 0.00 0.00 70 1020.4
20260904015835 27 215 0.0 0.0 0.00 0.00 0.00 70 1020.4
20260904015730 27 215 0.0 0.0 0.00 0.00 0.00 70 1020.4
20260904015629 27 215 0.0 0.0 0.00 0.00 0.00 70 1020.4
20260904015528 27 215 0.0 0.0 0.00 0.00 0.00 70 1020.3
20260904015427 27 215 0.0 0.0 0.00 0.00 0.00 69 1020.3
20260904015325 27 215 0.0 0.0 0.00 0.00 0.00 69 1020.4
20260904015225 27 215 0.0 0.0 0.00 0.00 0.00 69 1020.4
20260904015122 27 216 0.0 0.0 0.00 0.00 0.00 69 1020.4
20260904015024 27 216 0.0 0.0 0.00 0.00 0.00 69 1020.4
20260904014921 27 216 0.0 0.0 0.00 0.00 0.00 69 1020.3
20260904014819 27 217 0.0 0.0 0.00 0.00 0.00 69 1020.4
20260904014716 27 216 0.0 0.0 0.00 0.00 0.00 69 1020.4
20260904014616 27 217 0.0 0.0 0.00 0.00 0.00 69 1020.3
20260904014516 27 213 0.0 0.0 0.00 0.00 0.00 69 1020.3
20260904014414 27 213 0.0 0.0 0.00 0.00 0.00 69 1020.3
20260904014312 27 213 0.0 0.0 0.00 0.00 0.00 69 1020.3
20260904014205 27 213 0.0 0.0 0.00 0.00 0.00 69 1020.3
20260904014102 27 213 0.0 0.0 0.00 0.00 0.00 69 1020.2
20260904014002 27 213 0.0 0.0 0.00 0.00 0.00 69 1020.2
20260904013904 27 213 0.0 0.0 0.00 0.00 0.00 69 1020.2
20260904013802 27 213 0.0 0.0 0.00 0.00 0.00 69 1020.3
20260904013703 27 213 0.0 0.0 0.00 0.00 0.00 69 1020.3
20260904013601 27 213 0.0 0.0 0.00 0.00 0.00 69 1020.2
20260904013500 27 213 0.0 0.0 0.00 0.00 0.00 69 1020.2
20260904013400 27 213 0.0 0.0 0.00 0.00 0.00 69 1020.2
20260904013258 27 213 0.0 0.0 0.00 0.00 0.00 70 1020.2
20260904013157 27 213 0.0 0.0 0.00 0.00 0.00 69 1020.2
20260904013056 27 213 0.0 0.0 0.00 0.00 0.00 69 1020.2
20260904012952 27 213 0.0 0.0 0.00 0.00 0.00 69 1020.2
20260904012853 27 213 0.0 0.0 0.00 0.00 0.00 70 1020.0
20260904012751 27 213 0.0 0.0 0.00 0.00 0.00 70 1020.0
20260904012644 27 212 0.0 0.0 0.00 0.00 0.00 70 1019.9
20260904012544 27 213 0.0 0.0 0.00 0.00 0.00 70 1020.0
20260904012445 27 213 0.0 0.0 0.00 0.00 0.00 70 1020.0
20260904012343 27 213 0.0 0.0 0.00 0.00 0.00 70 1020.0
20260904012241 27 213 0.0 0.0 0.00 0.00 0.00 70 1020.2
20260904012140 27 213 0.0 0.0 0.00 0.00 0.00 70 1020.0
20260904012038 27 213 0.0 0.0 0.00 0.00 0.00 70 1020.0
20260904011939 27 213 0.0 0.0 0.00 0.00 0.00 70 1020.0
20260904011836 27 213 0.0 0.0 0.00 0.00 0.00 70 1020.0
20260904011735 27 213 0.0 0.0 0.00 0.00 0.00 70 1020.0
20260904011634 27 213 0.0 0.0 0.00 0.00 0.00 70 1020.0
20260904011533 27 213 0.0 0.0 0.00 0.00 0.00 71 1020.0
20260904011430 27 213 0.0 0.0 0.00 0.00 0.00 71 1020.0
20260904011331 27 213 0.0 0.0 0.00 0.00 0.00 71 1019.9
20260904011228 27 213 0.0 0.0 0.00 0.00 0.00 71 1019.9
20260904011124 27 213 0.0 0.0 0.00 0.00 0.00 71 1019.9
20260904011022 27 213 0.0 0.0 0.00 0.00 0.00 71 1019.9
20260904010923 27 213 0.0 0.0 0.00 0.00 0.00 71 1019.9
20260904010822 27 213 0.0 0.0 0.00 0.00 0.00 71 1019.8
20260904010719 27 233 0.0 0.0 0.00 0.00 0.00 71 1019.9
20260904010618 27 159 0.0 0.0 0.00 0.00 0.00 71 1019.8
20260904010518 27 155 0.0 0.0 0.00 0.00 0.00 71 1019.8
20260904010416 27 140 0.0 0.0 0.00 0.00 0.00 71 1019.8
20260904010316 27 140 0.0 0.0 0.00 0.00 0.00 71 1019.8
20260904010213 27 140 0.0 0.0 0.00 0.00 0.00 71 1019.8
20260904010107 27 101 0.0 0.0 0.00 0.00 0.00 71 1019.8
20260904010007 27 101 0.0 0.0 0.00 0.00 0.00 71 1019.7
20260904005907 27 101 0.0 0.0 0.00 0.00 0.00 71 1019.8
20260904005806 27 101 0.0 0.0 0.00 0.00 0.00 71 1019.8
20260904005706 27 101 0.0 0.0 0.00 0.00 0.00 71 1019.7
20260904005600 27 101 0.0 0.0 0.00 0.00 0.00 71 1019.7
20260904005500 27 103 0.0 0.0 0.00 0.00 0.00 71 1019.7
20260904005401 27 103 0.0 0.0 0.00 0.00 0.00 71 1019.7
20260904005258 27 104 0.0 0.0 0.00 0.00 0.00 71 1019.7
20260904005157 27 104 0.0 0.0 0.00 0.00 0.00 70 1019.6
20260904005057 27 104 0.0 0.0 0.00 0.00 0.00 71 1019.6
20260904004955 27 104 0.0 0.0 0.00 0.00 0.00 70 1019.7
20260904004855 27 104 0.0 0.0 0.00 0.00 0.00 70 1019.6
20260904004753 27 104 0.0 0.0 0.00 0.00 0.00 70 1019.6
20260904004651 27 104 0.0 0.0 0.00 0.00 0.00 70 1019.7
20260904004551 27 104 0.0 0.0 0.00 0.00 0.00 70 1019.6
20260904004447 27 104 0.0 0.0 0.00 0.00 0.00 70 1019.6
20260904004348 27 104 0.0 0.0 0.00 0.00 0.00 70 1019.6
20260904004248 27 104 0.0 0.0 0.00 0.00 0.00 70 1019.6
20260904004145 27 104 0.0 0.0 0.00 0.00 0.00 69 1019.5
20260904004038 27 104 0.0 0.0 0.00 0.00 0.00 69 1019.5
20260904003938 27 104 0.0 0.0 0.00 0.00 0.00 70 1019.5
20260904003839 27 104 0.0 0.0 0.00 0.00 0.00 70 1019.5
20260904003737 27 104 0.0 0.0 0.00 0.00 0.00 70 1019.5
20260904003635 27 104 0.0 0.0 0.00 0.00 0.00 70 1019.4
20260904003534 27 104 0.0 0.0 0.00 0.00 0.00 70 1019.5
20260904003433 27 104 0.0 0.0 0.00 0.00 0.00 70 1019.5
20260904003332 27 104 0.0 0.0 0.00 0.00 0.00 70 1019.4
20260904003231 28 104 0.0 0.0 0.00 0.00 0.00 70 1019.5
20260904003128 28 104 0.0 0.0 0.00 0.00 0.00 70 1019.4
20260904003028 28 104 0.0 0.0 0.00 0.00 0.00 70 1019.4
20260904002927 28 104 0.0 0.0 0.00 0.00 0.00 70 1019.4
20260904002826 28 104 0.0 0.0 0.00 0.00 0.00 70 1019.4
20260904002725 28 104 0.0 0.0 0.00 0.00 0.00 70 1019.3
20260904002623 28 104 0.0 0.0 0.00 0.00 0.00 70 1019.3
20260904002515 28 104 0.0 0.0 0.00 0.00 0.00 70 1019.2
20260904002416 28 104 0.0 0.0 0.00 0.00 0.00 70 1019.3
20260904002317 28 104 0.0 0.0 0.00 0.00 0.00 70 1019.2
20260904002215 28 104 0.0 0.0 0.00 0.00 0.00 70 1019.2
20260904002113 28 104 0.0 0.0 0.00 0.00 0.00 70 1019.2
20260904002006 28 104 0.0 0.0 0.00 0.00 0.00 70 1019.2
20260904001906 28 104 0.0 0.0 0.00 0.00 0.00 70 1019.1
20260904001806 28 104 0.0 0.0 0.00 0.00 0.00 70 1019.2
20260904001707 28 104 0.0 0.0 0.00 0.00 0.00 70 1019.2
20260904001607 28 104 0.0 0.0 0.00 0.00 0.00 69 1019.1
20260904001502 28 104 0.0 0.0 0.00 0.00 0.00 69 1019.1
20260904001404 28 104 0.0 0.0 0.00 0.00 0.00 69 1019.1
20260904001302 28 104 0.0 0.0 0.00 0.00 0.00 69 1019.1
20260904001203 28 104 0.0 0.0 0.00 0.00 0.00 69 1019.2
20260904001100 28 104 0.0 0.0 0.00 0.00 0.00 69 1019.1
20260904000955 28 104 0.0 0.0 0.00 0.00 0.00 69 1019.1
20260904000854 28 104 0.0 0.0 0.00 0.00 0.00 69 1019.1
20260904000754 28 104 0.0 0.0 0.00 0.00 0.00 69 1019.0
20260904000652 28 104 0.0 0.0 0.00 0.00 0.00 69 1019.0
20260904000551 28 104 0.0 0.0 0.00 0.00 0.00 69 1019.1
20260904000451 28 104 0.0 0.0 0.00 0.00 0.00 69 1018.9
20260904000348 28 104 0.0 0.0 0.00 0.00 0.00 69 1018.9
20260904000249 28 104 0.0 0.0 0.00 0.00 0.00 69 1019.1
20260904000148 28 104 0.0 0.0 0.00 0.00 0.00 69 1019.0
20260904000044 28 104 0.0 0.0 0.00 0.00 0.00 69 1019.1
20260903235939 28 104 0.0 0.0 0.00 0.00 0.00 69 1019.0
20260903235839 28 104 0.0 0.0 0.00 0.00 0.00 69 1019.1
20260903235740 28 104 0.0 0.0 0.00 0.00 0.00 69 1019.1
20260903235639 28 104 0.0 0.0 0.00 0.00 0.00 69 1019.0
20260903235539 28 104 0.0 0.0 0.00 0.00 0.00 69 1019.1
20260903235432 28 104 0.0 0.0 0.00 0.00 0.00 69 1019.0
20260903235333 28 104 0.0 0.0 0.00 0.00 0.00 69 1019.0
20260903235232 28 104 0.0 0.0 0.00 0.00 0.00 69 1019.1
20260903235131 29 104 0.0 0.0 0.00 0.00 0.00 69 1019.0
20260903235029 29 104 0.0 0.0 0.00 0.00 0.00 68 1019.0
20260903234924 29 104 0.0 0.0 0.00 0.00 0.00 69 1019.0
20260903234821 29 104 0.0 0.0 0.00 0.00 0.00 69 1019.0
20260903234722 29 104 0.0 0.0 0.00 0.00 0.00 69 1018.9
20260903234622 29 104 0.0 0.0 0.00 0.00 0.00 69 1018.9
20260903234523 29 104 0.0 0.0 0.00 0.00 0.00 69 1018.9
20260903234419 29 104 0.0 0.0 0.00 0.00 0.00 69 1018.9
20260903234316 29 104 0.0 0.0 0.00 0.00 0.00 69 1018.9
20260903234217 29 104 0.0 0.0 0.00 0.00 0.00 69 1018.9
20260903234116 29 104 0.0 0.0 0.00 0.00 0.00 69 1018.9
20260903234016 29 104 0.0 0.0 0.00 0.00 0.00 69 1018.9
20260903233911 29 104 0.0 0.0 0.00 0.00 0.00 69 1018.8
20260903233811 29 104 0.0 0.0 0.00 0.00 0.00 69 1018.9
20260903233710 29 104 0.0 0.0 0.00 0.00 0.00 68 1018.9
20260903233609 29 104 0.0 0.0 0.00 0.00 0.00 68 1018.9
20260903233507 29 104 0.0 0.0 0.00 0.00 0.00 68 1019.0
20260903233404 29 104 0.0 0.0 0.00 0.00 0.00 68 1018.9
20260903233304 29 104 0.0 0.0 0.00 0.00 0.00 68 1018.9
20260903233204 29 104 0.0 0.0 0.00 0.00 0.00 68 1018.8
20260903233103 29 104 0.0 0.0 0.00 0.00 0.00 67 1018.8
20260903233001 29 104 0.0 0.0 0.00 0.00 0.00 68 1018.8
20260903232900 30 104 0.0 0.0 0.00 0.00 0.00 68 1018.8
20260903232758 30 104 0.0 0.0 0.00 0.00 0.00 67 1018.8